Wetterdaten: aktuell Samstag, 30.05.2020 12:33
Datum Zeit Temp. 2m Feuchte 2m Luftdruck Regen Wind Richtung Richtung ET Taupunkt Windchill Windben
30.05.2020 12:33 9,6 C 82 % 1022,1 hPa 0,0 l/m 1,6 km/h (1 Bft) SW 225 0,000 mm 6,7 C 9,6 C 3,2 km/h (1 Bft)
30.05.2020 12:32 9,6 C 83 % 1022,0 hPa 0,0 l/m 3,2 km/h (1 Bft) SW 225 0,000 mm 6,9 C 9,6 C 4,8 km/h (1 Bft)
30.05.2020 12:31 9,6 C 85 % 1022,0 hPa 0,0 l/m 3,2 km/h (1 Bft) SW 225 0,000 mm 7,2 C 9,6 C 4,8 km/h (1 Bft)
30.05.2020 12:30 9,6 C 85 % 1022,1 hPa 0,0 l/m 3,2 km/h (1 Bft) SW 225 0,000 mm 7,2 C 9,6 C 4,8 km/h (1 Bft)
30.05.2020 12:29 9,6 C 85 % 1022,0 hPa 0,0 l/m 4,8 km/h (1 Bft) SW 225 0,000 mm 7,2 C 9,6 C 6,4 km/h (2 Bft)
30.05.2020 12:28 9,6 C 85 % 1022,1 hPa 0,0 l/m 3,2 km/h (1 Bft) SW 225 0,000 mm 7,2 C 9,6 C 4,8 km/h (1 Bft)
30.05.2020 12:27 9,6 C 86 % 1022,1 hPa 0,0 l/m 4,8 km/h (1 Bft) SW 225 0,000 mm 7,4 C 9,6 C 4,8 km/h (1 Bft)
30.05.2020 12:26 9,6 C 87 % 1022,1 hPa 0,0 l/m 3,2 km/h (1 Bft) SW 225 0,000 mm 7,5 C 9,6 C 4,8 km/h (1 Bft)
30.05.2020 12:25 9,6 C 87 % 1022,1 hPa 0,0 l/m 4,8 km/h (1 Bft) SW 225 0,000 mm 7,5 C 9,6 C 6,4 km/h (2 Bft)
30.05.2020 12:24 9,6 C 86 % 1022,1 hPa 0,0 l/m 4,8 km/h (1 Bft) SW 225 0,000 mm 7,4 C 9,6 C 6,4 km/h (2 Bft)
30.05.2020 12:23 9,6 C 87 % 1022,2 hPa 0,0 l/m 4,8 km/h (1 Bft) SW 225 0,000 mm 7,5 C 9,6 C 6,4 km/h (2 Bft)
30.05.2020 12:22 9,6 C 86 % 1022,1 hPa 0,0 l/m 6,4 km/h (2 Bft) SW 225 0,000 mm 7,4 C 9,6 C 6,4 km/h (2 Bft)
30.05.2020 12:21 9,6 C 86 % 1022,2 hPa 0,0 l/m 4,8 km/h (1 Bft) SW 225 0,000 mm 7,4 C 9,6 C 6,4 km/h (2 Bft)
30.05.2020 12:20 9,6 C 86 % 1022,2 hPa 0,0 l/m 4,8 km/h (1 Bft) SW 225 0,000 mm 7,4 C 9,6 C 6,4 km/h (2 Bft)
30.05.2020 12:19 9,6 C 85 % 1022,2 hPa 0,0 l/m 6,4 km/h (2 Bft) SW 225 0,000 mm 7,2 C 9,6 C 6,4 km/h (2 Bft)
30.05.2020 12:18 9,6 C 85 % 1022,2 hPa 0,0 l/m 6,4 km/h (2 Bft) SW 225 0,000 mm 7,2 C 9,6 C 6,4 km/h (2 Bft)
30.05.2020 12:17 9,6 C 85 % 1022,2 hPa 0,0 l/m 4,8 km/h (1 Bft) SW 225 0,000 mm 7,2 C 9,6 C 6,4 km/h (2 Bft)
30.05.2020 12:16 9,6 C 85 % 1022,2 hPa 0,0 l/m 4,8 km/h (1 Bft) SW 225 0,000 mm 7,2 C 9,6 C 6,4 km/h (2 Bft)
30.05.2020 12:15 9,6 C 85 % 1022,1 hPa 0,0 l/m 3,2 km/h (1 Bft) SW 225 0,000 mm 7,2 C 9,6 C 4,8 km/h (1 Bft)
30.05.2020 12:14 9,6 C 85 % 1022,1 hPa 0,0 l/m 3,2 km/h (1 Bft) SW 225 0,000 mm 7,2 C 9,6 C 4,8 km/h (1 Bft)
30.05.2020 12:13 9,5 C 85 % 1022,2 hPa 0,0 l/m 3,2 km/h (1 Bft) SW 225 0,000 mm 7,1 C 9,5 C 6,4 km/h (2 Bft)
30.05.2020 12:12 9,5 C 84 % 1022,1 hPa 0,0 l/m 4,8 km/h (1 Bft) SW 225 0,000 mm 6,9 C 9,5 C 6,4 km/h (2 Bft)
30.05.2020 12:11 9,4 C 85 % 1022,1 hPa 0,0 l/m 4,8 km/h (1 Bft) SW 225 0,000 mm 7,0 C 9,4 C 6,4 km/h (2 Bft)
30.05.2020 12:10 9,4 C 86 % 1022,1 hPa 0,0 l/m 3,2 km/h (1 Bft) SW 225 0,000 mm 7,2 C 9,4 C 4,8 km/h (1 Bft)
30.05.2020 12:09 9,4 C 86 % 1022,1 hPa 0,0 l/m 3,2 km/h (1 Bft) SW 225 0,000 mm 7,2 C 9,4 C 4,8 km/h (1 Bft)
30.05.2020 12:08 9,4 C 86 % 1022,1 hPa 0,0 l/m 4,8 km/h (1 Bft) SW 225 0,000 mm 7,2 C 9,4 C 6,4 km/h (2 Bft)
30.05.2020 12:07 9,4 C 86 % 1022,1 hPa 0,0 l/m 4,8 km/h (1 Bft) SW 225 0,000 mm 7,2 C 9,4 C 6,4 km/h (2 Bft)
30.05.2020 12:06 9,4 C 86 % 1022,1 hPa 0,0 l/m 4,8 km/h (1 Bft) SW 225 0,000 mm 7,2 C 9,4 C 6,4 km/h (2 Bft)
30.05.2020 12:05 9,4 C 86 % 1022,1 hPa 0,0 l/m 4,8 km/h (1 Bft) SW 225 0,000 mm 7,2 C 9,4 C 6,4 km/h (2 Bft)
30.05.2020 12:04 9,4 C 86 % 1022,0 hPa 0,0 l/m 3,2 km/h (1 Bft) SW 225 0,000 mm 7,2 C 9,4 C 6,4 km/h (2 Bft)
30.05.2020 12:03 9,4 C 86 % 1022,0 hPa 0,0 l/m 4,8 km/h (1 Bft) SW 225 0,000 mm 7,2 C 9,4 C 6,4 km/h (2 Bft)
30.05.2020 12:02 9,4 C 85 % 1022,1 hPa 0,0 l/m 6,4 km/h (2 Bft) SW 225 0,000 mm 7,0 C 9,4 C 6,4 km/h (2 Bft)
30.05.2020 12:01 9,4 C 85 % 1022,0 hPa 0,0 l/m 6,4 km/h (2 Bft) SW 225 0,000 mm 7,0 C 9,4 C 8,0 km/h (2 Bft)
30.05.2020 12:00 9,4 C 86 % 1022,1 hPa 0,0 l/m 6,4 km/h (2 Bft) W-SW 247 0,000 mm 7,2 C 9,4 C 8,0 km/h (2 Bft)
30.05.2020 11:59 9,4 C 86 % 1022,1 hPa 0,0 l/m 6,4 km/h (2 Bft) W-SW 247 0,000 mm 7,2 C 9,4 C 8,0 km/h (2 Bft)
30.05.2020 11:58 9,4 C 86 % 1022,1 hPa 0,0 l/m 4,8 km/h (1 Bft) W-SW 247 0,000 mm 7,2 C 9,4 C 4,8 km/h (1 Bft)
30.05.2020 11:57 9,4 C 85 % 1022,1 hPa 0,0 l/m 4,8 km/h (1 Bft) W-SW 247 0,000 mm 7,0 C 9,4 C 6,4 km/h (2 Bft)
30.05.2020 11:56 9,4 C 85 % 1022,1 hPa 0,0 l/m 4,8 km/h (1 Bft) W-SW 247 0,000 mm 7,0 C 9,4 C 6,4 km/h (2 Bft)
30.05.2020 11:55 9,4 C 85 % 1022,1 hPa 0,0 l/m 4,8 km/h (1 Bft) W-SW 247 0,000 mm 7,0 C 9,4 C 6,4 km/h (2 Bft)
30.05.2020 11:54 9,4 C 85 % 1022,1 hPa 0,0 l/m 3,2 km/h (1 Bft) W-SW 247 0,000 mm 7,0 C 9,4 C 6,4 km/h (2 Bft)
30.05.2020 11:53 9,4 C 85 % 1022,1 hPa 0,0 l/m 6,4 km/h (2 Bft) W-SW 247 0,000 mm 7,0 C 9,4 C 8,0 km/h (2 Bft)
30.05.2020 11:52 9,4 C 85 % 1022,1 hPa 0,0 l/m 6,4 km/h (2 Bft) W-SW 247 0,000 mm 7,0 C 9,4 C 8,0 km/h (2 Bft)
30.05.2020 11:51 9,4 C 85 % 1022,1 hPa 0,0 l/m 4,8 km/h (1 Bft) W-SW 247 0,000 mm 7,0 C 9,4 C 6,4 km/h (2 Bft)
30.05.2020 11:50 9,4 C 85 % 1022,1 hPa 0,0 l/m 3,2 km/h (1 Bft) W-SW 247 0,000 mm 7,0 C 9,4 C 4,8 km/h (1 Bft)
30.05.2020 11:49 9,3 C 84 % 1022,0 hPa 0,0 l/m 4,8 km/h (1 Bft) W-SW 247 0,000 mm 6,7 C 9,3 C 4,8 km/h (1 Bft)
30.05.2020 11:48 9,3 C 85 % 1022,1 hPa 0,0 l/m 4,8 km/h (1 Bft) W-SW 247 0,000 mm 6,9 C 9,3 C 4,8 km/h (1 Bft)
30.05.2020 11:47 9,3 C 85 % 1022,1 hPa 0,0 l/m 4,8 km/h (1 Bft) W-SW 247 0,000 mm 6,9 C 9,3 C 6,4 km/h (2 Bft)
30.05.2020 11:46 9,3 C 85 % 1022,0 hPa 0,0 l/m 4,8 km/h (1 Bft) W-SW 247 0,000 mm 6,9 C 9,3 C 6,4 km/h (2 Bft)
30.05.2020 11:45 9,3 C 84 % 1022,1 hPa 0,0 l/m 6,4 km/h (2 Bft) W-SW 247 0,000 mm 6,7 C 9,3 C 8,0 km/h (2 Bft)
30.05.2020 11:44 9,3 C 84 % 1022,0 hPa 0,0 l/m 6,4 km/h (2 Bft) W-SW 247 0,000 mm 6,7 C 9,3 C 8,0 km/h (2 Bft)
30.05.2020 11:43 9,4 C 85 % 1022,0 hPa 0,0 l/m 6,4 km/h (2 Bft) W-SW 247 0,000 mm 7,0 C 9,4 C 8,0 km/h (2 Bft)
30.05.2020 11:42 9,4 C 85 % 1022,0 hPa 0,0 l/m 6,4 km/h (2 Bft) W-SW 247 0,000 mm 7,0 C 9,4 C 8,0 km/h (2 Bft)
30.05.2020 11:41 9,4 C 84 % 1022,0 hPa 0,0 l/m 4,8 km/h (1 Bft) W-SW 247 0,000 mm 6,8 C 9,4 C 8,0 km/h (2 Bft)
30.05.2020 11:40 9,4 C 83 % 1022,0 hPa 0,0 l/m 6,4 km/h (2 Bft) SW 225 0,000 mm 6,7 C 9,4 C 8,0 km/h (2 Bft)
30.05.2020 11:39 9,4 C 83 % 1022,1 hPa 0,0 l/m 6,4 km/h (2 Bft) SW 225 0,000 mm 6,7 C 9,4 C 8,0 km/h (2 Bft)
30.05.2020 11:38 9,5 C 82 % 1022,0 hPa 0,0 l/m 8,0 km/h (2 Bft) W-SW 247 0,000 mm 6,6 C 8,3 C 9,7 km/h (2 Bft)
30.05.2020 11:37 9,6 C 81 % 1022,0 hPa 0,0 l/m 8,0 km/h (2 Bft) W-SW 247 0,000 mm 6,5 C 8,4 C 8,0 km/h (2 Bft)
30.05.2020 11:36 9,6 C 81 % 1022,0 hPa 0,0 l/m 8,0 km/h (2 Bft) SW 225 0,000 mm 6,5 C 8,4 C 8,0 km/h (2 Bft)
30.05.2020 11:35 9,7 C 81 % 1022,0 hPa 0,0 l/m 8,0 km/h (2 Bft) SW 225 0,000 mm 6,6 C 8,5 C 8,0 km/h (2 Bft)
30.05.2020 11:34 9,8 C 83 % 1022,0 hPa 0,0 l/m 8,0 km/h (2 Bft) SW 225 0,000 mm 7,1 C 8,6 C 9,7 km/h (2 Bft)
30.05.2020 11:33 9,9 C 82 % 1022,0 hPa 0,0 l/m 6,4 km/h (2 Bft) SW 225 0,000 mm 7,0 C 9,9 C 8,0 km/h (2 Bft)
30.05.2020 11:32 9,9 C 82 % 1022,0 hPa 0,0 l/m 6,4 km/h (2 Bft) SW 225 0,000 mm 7,0 C 9,9 C 8,0 km/h (2 Bft)
30.05.2020 11:31 10,1 C 82 % 1022,0 hPa 0,0 l/m 6,4 km/h (2 Bft) SW 225 0,000 mm 7,2 C 10,1 C 6,4 km/h (2 Bft)
30.05.2020 11:30 10,1 C 81 % 1022,0 hPa 0,0 l/m 4,8 km/h (1 Bft) SW 225 0,000 mm 7,0 C 10,1 C 6,4 km/h (2 Bft)
30.05.2020 11:29 10,0 C 79 % 1022,0 hPa 0,0 l/m 3,2 km/h (1 Bft) SW 225 0,000 mm 6,5 C 10,0 C 4,8 km/h (1 Bft)
30.05.2020 11:28 10,0 C 79 % 1022,0 hPa 0,0 l/m 1,6 km/h (1 Bft) SW 225 0,000 mm 6,5 C 10,0 C 3,2 km/h (1 Bft)
30.05.2020 11:27 9,9 C 79 % 1022,0 hPa 0,0 l/m 0,0 km/h (0 Bft) SW 225 0,000 mm 6,4 C 9,9 C 1,6 km/h (1 Bft)
30.05.2020 11:26 9,9 C 78 % 1022,0 hPa 0,0 l/m 0,0 km/h (0 Bft) SW 225 0,000 mm 6,2 C 9,9 C 1,6 km/h (1 Bft)
30.05.2020 11:25 9,8 C 77 % 1022,0 hPa 0,0 l/m 1,6 km/h (1 Bft) SW 225 0,000 mm 6,0 C 9,8 C 3,2 km/h (1 Bft)
30.05.2020 11:24 9,8 C 77 % 1022,0 hPa 0,0 l/m 1,6 km/h (1 Bft) SW 225 0,000 mm 6,0 C 9,8 C 3,2 km/h (1 Bft)
30.05.2020 11:23 9,7 C 78 % 1022,0 hPa 0,0 l/m 3,2 km/h (1 Bft) SW 225 0,000 mm 6,1 C 9,7 C 3,2 km/h (1 Bft)
30.05.2020 11:22 9,7 C 77 % 1022,0 hPa 0,0 l/m 1,6 km/h (1 Bft) SW 225 0,000 mm 5,9 C 9,7 C 3,2 km/h (1 Bft)
30.05.2020 11:21 9,6 C 78 % 1022,0 hPa 0,0 l/m 1,6 km/h (1 Bft) SW 225 0,000 mm 6,0 C 9,6 C 3,2 km/h (1 Bft)
30.05.2020 11:20 9,6 C 78 % 1022,0 hPa 0,0 l/m 1,6 km/h (1 Bft) SW 225 0,000 mm 6,0 C 9,6 C 3,2 km/h (1 Bft)
30.05.2020 11:19 9,5 C 79 % 1022,0 hPa 0,0 l/m 1,6 km/h (1 Bft) SW 225 0,000 mm 6,0 C 9,5 C 3,2 km/h (1 Bft)
30.05.2020 11:18 9,4 C 81 % 1022,0 hPa 0,0 l/m 3,2 km/h (1 Bft) SW 225 0,000 mm 6,3 C 9,4 C 4,8 km/h (1 Bft)
30.05.2020 11:17 9,4 C 83 % 1022,0 hPa 0,0 l/m 3,2 km/h (1 Bft) SW 225 0,000 mm 6,7 C 9,4 C 4,8 km/h (1 Bft)
30.05.2020 11:16 9,4 C 84 % 1022,0 hPa 0,0 l/m 1,6 km/h (1 Bft) SW 225 0,000 mm 6,8 C 9,4 C 3,2 km/h (1 Bft)
30.05.2020 11:15 9,4 C 83 % 1022,0 hPa 0,0 l/m 1,6 km/h (1 Bft) SW 225 0,000 mm 6,7 C 9,4 C 3,2 km/h (1 Bft)
30.05.2020 11:14 9,3 C 83 % 1022,0 hPa 0,0 l/m 3,2 km/h (1 Bft) SW 225 0,000 mm 6,6 C 9,3 C 3,2 km/h (1 Bft)
30.05.2020 11:13 9,3 C 85 % 1022,0 hPa 0,0 l/m 3,2 km/h (1 Bft) SW 225 0,000 mm 6,9 C 9,3 C 4,8 km/h (1 Bft)
30.05.2020 11:12 9,3 C 85 % 1022,0 hPa 0,0 l/m 1,6 km/h (1 Bft) SW 225 0,000 mm 6,9 C 9,3 C 3,2 km/h (1 Bft)
30.05.2020 11:11 9,3 C 84 % 1022,0 hPa 0,0 l/m 1,6 km/h (1 Bft) SW 225 0,000 mm 6,7 C 9,3 C 3,2 km/h (1 Bft)
30.05.2020 11:10 9,3 C 85 % 1022,0 hPa 0,0 l/m 1,6 km/h (1 Bft) SW 225 0,000 mm 6,9 C 9,3 C 3,2 km/h (1 Bft)
30.05.2020 11:09 9,3 C 85 % 1022,0 hPa 0,0 l/m 3,2 km/h (1 Bft) SW 225 0,000 mm 6,9 C 9,3 C 3,2 km/h (1 Bft)
30.05.2020 11:08 9,3 C 85 % 1022,0 hPa 0,0 l/m 3,2 km/h (1 Bft) SW 225 0,000 mm 6,9 C 9,3 C 4,8 km/h (1 Bft)
30.05.2020 11:07 9,3 C 85 % 1022,0 hPa 0,0 l/m 4,8 km/h (1 Bft) SW 225 0,000 mm 6,9 C 9,3 C 6,4 km/h (2 Bft)
30.05.2020 11:06 9,3 C 84 % 1022,1 hPa 0,0 l/m 4,8 km/h (1 Bft) SW 225 0,000 mm 6,7 C 9,3 C 6,4 km/h (2 Bft)
30.05.2020 11:05 9,2 C 84 % 1022,1 hPa 0,0 l/m 3,2 km/h (1 Bft) SW 225 0,000 mm 6,6 C 9,2 C 4,8 km/h (1 Bft)
30.05.2020 11:04 9,2 C 84 % 1022,1 hPa 0,0 l/m 3,2 km/h (1 Bft) SW 225 0,000 mm 6,6 C 9,2 C 4,8 km/h (1 Bft)
30.05.2020 11:03 9,2 C 85 % 1022,2 hPa 0,0 l/m 3,2 km/h (1 Bft) SW 225 0,000 mm 6,8 C 9,2 C 4,8 km/h (1 Bft)
30.05.2020 11:02 9,3 C 86 % 1022,1 hPa 0,0 l/m 3,2 km/h (1 Bft) SW 225 0,000 mm 7,1 C 9,3 C 4,8 km/h (1 Bft)
30.05.2020 11:01 9,2 C 86 % 1022,1 hPa 0,0 l/m 3,2 km/h (1 Bft) SW 225 0,000 mm 7,0 C 9,2 C 3,2 km/h (1 Bft)
30.05.2020 11:00 9,2 C 86 % 1022,1 hPa 0,0 l/m 3,2 km/h (1 Bft) SW 225 0,000 mm 7,0 C 9,2 C 3,2 km/h (1 Bft)
30.05.2020 10:59 9,2 C 85 % 1022,1 hPa 0,0 l/m 3,2 km/h (1 Bft) SW 225 0,000 mm 6,8 C 9,2 C 3,2 km/h (1 Bft)
30.05.2020 10:58 9,2 C 85 % 1022,1 hPa 0,0 l/m 3,2 km/h (1 Bft) SW 225 0,000 mm 6,8 C 9,2 C 3,2 km/h (1 Bft)
30.05.2020 10:57 9,2 C 84 % 1022,1 hPa 0,0 l/m 3,2 km/h (1 Bft) SW 225 0,000 mm 6,6 C 9,2 C 4,8 km/h (1 Bft)
30.05.2020 10:56 9,2 C 83 % 1022,1 hPa 0,0 l/m 3,2 km/h (1 Bft) SW 225 0,000 mm 6,5 C 9,2 C 4,8 km/h (1 Bft)
30.05.2020 10:55 9,1 C 83 % 1022,1 hPa 0,0 l/m 3,2 km/h (1 Bft) SW 225 0,000 mm 6,4 C 9,1 C 3,2 km/h (1 Bft)
30.05.2020 10:54 9,1 C 84 % 1022,1 hPa 0,0 l/m 3,2 km/h (1 Bft) SW 225 0,000 mm 6,5 C 9,1 C 4,8 km/h (1 Bft)
30.05.2020 10:53 9,2 C 84 % 1022,1 hPa 0,0 l/m 3,2 km/h (1 Bft) SW 225 0,000 mm 6,6 C 9,2 C 4,8 km/h (1 Bft)
30.05.2020 10:52 9,1 C 84 % 1022,1 hPa 0,0 l/m 3,2 km/h (1 Bft) SW 225 0,000 mm 6,5 C 9,1 C 6,4 km/h (2 Bft)
30.05.2020 10:51 9,2 C 84 % 1022,1 hPa 0,0 l/m 4,8 km/h (1 Bft) SW 225 0,000 mm 6,6 C 9,2 C 4,8 km/h (1 Bft)
30.05.2020 10:50 9,2 C 84 % 1022,1 hPa 0,0 l/m 4,8 km/h (1 Bft) SW 225 0,000 mm 6,6 C 9,2 C 6,4 km/h (2 Bft)
30.05.2020 10:49 9,2 C 83 % 1022,1 hPa 0,0 l/m 4,8 km/h (1 Bft) SW 225 0,000 mm 6,5 C 9,2 C 6,4 km/h (2 Bft)
30.05.2020 10:48 9,2 C 84 % 1022,1 hPa 0,0 l/m 4,8 km/h (1 Bft) SW 225 0,000 mm 6,6 C 9,2 C 6,4 km/h (2 Bft)
30.05.2020 10:47 9,2 C 83 % 1022,1 hPa 0,0 l/m 3,2 km/h (1 Bft) SW 225 0,000 mm 6,5 C 9,2 C 4,8 km/h (1 Bft)
30.05.2020 10:46 9,1 C 83 % 1022,0 hPa 0,0 l/m 4,8 km/h (1 Bft) SW 225 0,000 mm 6,4 C 9,1 C 4,8 km/h (1 Bft)
30.05.2020 10:45 9,2 C 84 % 1022,1 hPa 0,0 l/m 4,8 km/h (1 Bft) SW 225 0,000 mm 6,6 C 9,2 C 6,4 km/h (2 Bft)
30.05.2020 10:44 9,2 C 84 % 1022,0 hPa 0,0 l/m 6,4 km/h (2 Bft) SW 225 0,000 mm 6,6 C 9,2 C 6,4 km/h (2 Bft)
30.05.2020 10:43 9,2 C 84 % 1022,1 hPa 0,0 l/m 6,4 km/h (2 Bft) SW 225 0,000 mm 6,6 C 9,2 C 8,0 km/h (2 Bft)
30.05.2020 10:42 9,2 C 84 % 1022,1 hPa 0,0 l/m 6,4 km/h (2 Bft) S-SW 202 0,000 mm 6,6 C 9,2 C 8,0 km/h (2 Bft)
30.05.2020 10:41 9,2 C 84 % 1022,1 hPa 0,0 l/m 8,0 km/h (2 Bft) SW 225 0,000 mm 6,6 C 8,0 C 8,0 km/h (2 Bft)
30.05.2020 10:40 9,2 C 84 % 1022,1 hPa 0,0 l/m 6,4 km/h (2 Bft) SW 225 0,000 mm 6,6 C 9,2 C 8,0 km/h (2 Bft)
30.05.2020 10:39 9,2 C 84 % 1022,0 hPa 0,0 l/m 6,4 km/h (2 Bft) SW 225 0,000 mm 6,6 C 9,2 C 8,0 km/h (2 Bft)
30.05.2020 10:38 9,2 C 84 % 1022,0 hPa 0,0 l/m 6,4 km/h (2 Bft) SW 225 0,000 mm 6,6 C 9,2 C 8,0 km/h (2 Bft)
30.05.2020 10:37 9,2 C 84 % 1022,0 hPa 0,0 l/m 8,0 km/h (2 Bft) S-SW 202 0,000 mm 6,6 C 8,0 C 9,7 km/h (2 Bft)
30.05.2020 10:36 9,2 C 84 % 1022,0 hPa 0,0 l/m 6,4 km/h (2 Bft) SW 225 0,000 mm 6,6 C 9,2 C 8,0 km/h (2 Bft)
30.05.2020 10:35 9,2 C 83 % 1022,0 hPa 0,0 l/m 8,0 km/h (2 Bft) S-SW 202 0,000 mm 6,5 C 8,0 C 9,7 km/h (2 Bft)
30.05.2020 10:34 9,2 C 84 % 1022,0 hPa 0,0 l/m 9,7 km/h (2 Bft) S-SW 202 0,000 mm 6,6 C 6,9 C 11,3 km/h (2 Bft)
30.05.2020 10:33 9,3 C 83 % 1022,0 hPa 0,0 l/m 9,7 km/h (2 Bft) S-SW 202 0,000 mm 6,6 C 7,0 C 11,3 km/h (2 Bft)
30.05.2020 10:32 9,3 C 83 % 1022,0 hPa 0,0 l/m 9,7 km/h (2 Bft) S-SW 202 0,000 mm 6,6 C 7,0 C 9,7 km/h (2 Bft)
30.05.2020 10:31 9,3 C 83 % 1022,0 hPa 0,0 l/m 8,0 km/h (2 Bft) S-SW 202 0,000 mm 6,6 C 8,1 C 9,7 km/h (2 Bft)
30.05.2020 10:30 9,3 C 84 % 1022,0 hPa 0,0 l/m 8,0 km/h (2 Bft) S-SW 202 0,000 mm 6,7 C 8,1 C 9,7 km/h (2 Bft)
30.05.2020 10:29 9,3 C 84 % 1022,0 hPa 0,0 l/m 8,0 km/h (2 Bft) S-SW 202 0,000 mm 6,7 C 8,1 C 9,7 km/h (2 Bft)
30.05.2020 10:28 9,2 C 83 % 1022,0 hPa 0,0 l/m 8,0 km/h (2 Bft) S-SW 202 0,000 mm 6,5 C 8,0 C 9,7 km/h (2 Bft)
30.05.2020 10:27 9,2 C 84 % 1021,9 hPa 0,0 l/m 8,0 km/h (2 Bft) S-SW 202 0,000 mm 6,6 C 8,0 C 9,7 km/h (2 Bft)
30.05.2020 10:26 9,2 C 84 % 1022,0 hPa 0,0 l/m 8,0 km/h (2 Bft) S-SW 202 0,000 mm 6,6 C 8,0 C 9,7 km/h (2 Bft)
30.05.2020 10:25 9,2 C 83 % 1021,9 hPa 0,0 l/m 8,0 km/h (2 Bft) S-SW 202 0,000 mm 6,5 C 8,0 C 9,7 km/h (2 Bft)
30.05.2020 10:24 9,2 C 84 % 1021,9 hPa 0,0 l/m 8,0 km/h (2 Bft) S-SW 202 0,000 mm 6,6 C 8,0 C 11,3 km/h (2 Bft)
30.05.2020 10:23 9,2 C 84 % 1022,0 hPa 0,0 l/m 6,4 km/h (2 Bft) S-SW 202 0,000 mm 6,6 C 9,2 C 9,7 km/h (2 Bft)
30.05.2020 10:22 9,3 C 84 % 1021,9 hPa 0,0 l/m 8,0 km/h (2 Bft) S-SW 202 0,000 mm 6,7 C 8,1 C 8,0 km/h (2 Bft)
30.05.2020 10:21 9,3 C 85 % 1022,0 hPa 0,0 l/m 6,4 km/h (2 Bft) S-SW 202 0,000 mm 6,9 C 9,3 C 8,0 km/h (2 Bft)
30.05.2020 10:20 9,3 C 85 % 1021,9 hPa 0,0 l/m 8,0 km/h (2 Bft) S-SW 202 0,000 mm 6,9 C 8,1 C 9,7 km/h (2 Bft)
30.05.2020 10:19 9,4 C 85 % 1022,0 hPa 0,0 l/m 8,0 km/h (2 Bft) S-SW 202 0,000 mm 7,0 C 8,2 C 9,7 km/h (2 Bft)
30.05.2020 10:18 9,4 C 86 % 1022,0 hPa 0,0 l/m 9,7 km/h (2 Bft) S-SW 202 0,000 mm 7,2 C 7,1 C 9,7 km/h (2 Bft)
30.05.2020 10:17 9,5 C 85 % 1022,0 hPa 0,0 l/m 6,4 km/h (2 Bft) SW 225 0,000 mm 7,1 C 9,5 C 9,7 km/h (2 Bft)
30.05.2020 10:16 9,6 C 86 % 1022,0 hPa 0,0 l/m 6,4 km/h (2 Bft) S-SW 202 0,000 mm 7,4 C 9,6 C 8,0 km/h (2 Bft)
30.05.2020 10:15 9,7 C 85 % 1022,0 hPa 0,0 l/m 6,4 km/h (2 Bft) S-SW 202 0,000 mm 7,3 C 9,7 C 6,4 km/h (2 Bft)
30.05.2020 10:14 9,7 C 84 % 1021,9 hPa 0,0 l/m 6,4 km/h (2 Bft) S-SW 202 0,000 mm 7,1 C 9,7 C 8,0 km/h (2 Bft)
30.05.2020 10:13 9,8 C 83 % 1021,9 hPa 0,0 l/m 6,4 km/h (2 Bft) S-SW 202 0,000 mm 7,1 C 9,8 C 8,0 km/h (2 Bft)
30.05.2020 10:12 10,0 C 83 % 1022,0 hPa 0,0 l/m 8,0 km/h (2 Bft) S-SW 202 0,000 mm 7,2 C 8,9 C 11,3 km/h (2 Bft)
30.05.2020 10:11 10,2 C 82 % 1021,9 hPa 0,0 l/m 8,0 km/h (2 Bft) S-SW 202 0,000 mm 7,3 C 9,1 C 8,0 km/h (2 Bft)
30.05.2020 10:10 10,4 C 82 % 1021,9 hPa 0,0 l/m 8,0 km/h (2 Bft) S-SW 202 0,000 mm 7,5 C 9,3 C 9,7 km/h (2 Bft)
30.05.2020 10:09 10,6 C 80 % 1021,9 hPa 0,0 l/m 6,4 km/h (2 Bft) S-SW 202 0,000 mm 7,3 C 10,6 C 8,0 km/h (2 Bft)
30.05.2020 10:08 10,7 C 78 % 1021,9 hPa 0,0 l/m 6,4 km/h (2 Bft) SW 225 0,000 mm 7,0 C 10,7 C 8,0 km/h (2 Bft)
30.05.2020 10:07 10,8 C 78 % 1021,9 hPa 0,0 l/m 6,4 km/h (2 Bft) SW 225 0,000 mm 7,1 C 10,8 C 8,0 km/h (2 Bft)
30.05.2020 10:06 10,8 C 75 % 1021,9 hPa 0,0 l/m 3,2 km/h (1 Bft) W 270 0,000 mm 6,5 C 10,8 C 6,4 km/h (2 Bft)
30.05.2020 10:05 10,8 C 70 % 1022,0 hPa 0,0 l/m 1,6 km/h (1 Bft) W 270 0,000 mm 5,6 C 10,8 C 3,2 km/h (1 Bft)
30.05.2020 10:04 10,8 C 67 % 1022,0 hPa 0,0 l/m 1,6 km/h (1 Bft) W 270 0,000 mm 4,9 C 10,8 C 3,2 km/h (1 Bft)
30.05.2020 10:03 10,8 C 66 % 1022,0 hPa 0,0 l/m 3,2 km/h (1 Bft) W 270 0,000 mm 4,7 C 10,8 C 6,4 km/h (2 Bft)
30.05.2020 10:02 10,8 C 68 % 1022,0 hPa 0,0 l/m 6,4 km/h (2 Bft) W 270 0,000 mm 5,1 C 10,8 C 6,4 km/h (2 Bft)
30.05.2020 10:01 10,8 C 67 % 1022,0 hPa 0,0 l/m 1,6 km/h (1 Bft) NW 315 0,000 mm 4,9 C 10,8 C 4,8 km/h (1 Bft)
30.05.2020 10:00 10,8 C 68 % 1022,0 hPa 0,0 l/m 1,6 km/h (1 Bft) NW 315 0,000 mm 5,1 C 10,8 C 1,6 km/h (1 Bft)
30.05.2020 09:59 10,7 C 65 % 1022,0 hPa 0,0 l/m 3,2 km/h (1 Bft) NW 315 0,000 mm 4,4 C 10,7 C 4,8 km/h (1 Bft)
30.05.2020 09:58 10,7 C 65 % 1021,9 hPa 0,0 l/m 4,8 km/h (1 Bft) NW 315 0,000 mm 4,4 C 10,7 C 6,4 km/h (2 Bft)
30.05.2020 09:57 10,7 C 69 % 1022,0 hPa 0,0 l/m 4,8 km/h (1 Bft) NW 315 0,000 mm 5,2 C 10,7 C 4,8 km/h (1 Bft)
30.05.2020 09:56 10,7 C 68 % 1022,0 hPa 0,0 l/m 3,2 km/h (1 Bft) NW 315 0,000 mm 5,0 C 10,7 C 4,8 km/h (1 Bft)
30.05.2020 09:55 10,6 C 67 % 1022,0 hPa 0,0 l/m 3,2 km/h (1 Bft) NW 315 0,000 mm 4,7 C 10,6 C 4,8 km/h (1 Bft)
30.05.2020 09:54 10,6 C 67 % 1022,0 hPa 0,0 l/m 3,2 km/h (1 Bft) NW 315 0,000 mm 4,7 C 10,6 C 4,8 km/h (1 Bft)
30.05.2020 09:53 10,6 C 66 % 1022,0 hPa 0,0 l/m 3,2 km/h (1 Bft) NW 315 0,000 mm 4,5 C 10,6 C 4,8 km/h (1 Bft)
30.05.2020 09:52 10,6 C 66 % 1022,0 hPa 0,0 l/m 4,8 km/h (1 Bft) NW 315 0,000 mm 4,5 C 10,6 C 8,0 km/h (2 Bft)
30.05.2020 09:51 10,6 C 68 % 1022,1 hPa 0,0 l/m 6,4 km/h (2 Bft) W-NW 292 0,000 mm 4,9 C 10,6 C 8,0 km/h (2 Bft)
30.05.2020 09:50 10,6 C 67 % 1022,0 hPa 0,0 l/m 6,4 km/h (2 Bft) W-NW 292 0,000 mm 4,7 C 10,6 C 8,0 km/h (2 Bft)
30.05.2020 09:49 10,5 C 69 % 1022,0 hPa 0,0 l/m 3,2 km/h (1 Bft) N-NW 337 0,000 mm 5,1 C 10,5 C 6,4 km/h (2 Bft)
30.05.2020 09:48 10,5 C 68 % 1022,0 hPa 0,0 l/m 3,2 km/h (1 Bft) N-NW 337 0,000 mm 4,8 C 10,5 C 6,4 km/h (2 Bft)
30.05.2020 09:47 10,5 C 69 % 1022,0 hPa 0,0 l/m 4,8 km/h (1 Bft) N-NW 337 0,000 mm 5,1 C 10,5 C 6,4 km/h (2 Bft)
30.05.2020 09:46 10,5 C 69 % 1022,1 hPa 0,0 l/m 4,8 km/h (1 Bft) N-NW 337 0,000 mm 5,1 C 10,5 C 6,4 km/h (2 Bft)
30.05.2020 09:45 10,4 C 68 % 1022,1 hPa 0,0 l/m 3,2 km/h (1 Bft) N-NW 337 0,000 mm 4,8 C 10,4 C 4,8 km/h (1 Bft)
30.05.2020 09:44 10,4 C 68 % 1022,1 hPa 0,0 l/m 6,4 km/h (2 Bft) N-NW 337 0,000 mm 4,8 C 10,4 C 8,0 km/h (2 Bft)
30.05.2020 09:43 10,4 C 69 % 1022,1 hPa 0,0 l/m 3,2 km/h (1 Bft) N 360 0,000 mm 5,0 C 10,4 C 4,8 km/h (1 Bft)
30.05.2020 09:42 10,4 C 68 % 1022,1 hPa 0,0 l/m 3,2 km/h (1 Bft) N 360 0,000 mm 4,8 C 10,4 C 4,8 km/h (1 Bft)
30.05.2020 09:41 10,4 C 69 % 1022,1 hPa 0,0 l/m 3,2 km/h (1 Bft) N 360 0,000 mm 5,0 C 10,4 C 4,8 km/h (1 Bft)
30.05.2020 09:40 10,3 C 71 % 1022,1 hPa 0,0 l/m 3,2 km/h (1 Bft) N 360 0,000 mm 5,3 C 10,3 C 6,4 km/h (2 Bft)
30.05.2020 09:39 10,3 C 69 % 1022,1 hPa 0,0 l/m 3,2 km/h (1 Bft) N 360 0,000 mm 4,9 C 10,3 C 6,4 km/h (2 Bft)
30.05.2020 09:38 10,3 C 69 % 1022,1 hPa 0,0 l/m 4,8 km/h (1 Bft) N 360 0,000 mm 4,9 C 10,3 C 6,4 km/h (2 Bft)
30.05.2020 09:37 10,2 C 70 % 1022,1 hPa 0,0 l/m 6,4 km/h (2 Bft) N 360 0,000 mm 5,0 C 10,2 C 6,4 km/h (2 Bft)
30.05.2020 09:36 10,2 C 68 % 1022,1 hPa 0,0 l/m 4,8 km/h (1 Bft) N 360 0,000 mm 4,6 C 10,2 C 6,4 km/h (2 Bft)
30.05.2020 09:35 10,2 C 69 % 1022,1 hPa 0,0 l/m 4,8 km/h (1 Bft) N 360 0,000 mm 4,8 C 10,2 C 6,4 km/h (2 Bft)
30.05.2020 09:34 10,1 C 68 % 1022,2 hPa 0,0 l/m 4,8 km/h (1 Bft) N 360 0,000 mm 4,5 C 10,1 C 6,4 km/h (2 Bft)
30.05.2020 09:33 10,1 C 67 % 1022,1 hPa 0,0 l/m 3,2 km/h (1 Bft) N 360 0,000 mm 4,3 C 10,1 C 4,8 km/h (1 Bft)
30.05.2020 09:32 10,0 C 68 % 1022,2 hPa 0,0 l/m 3,2 km/h (1 Bft) N 360 0,000 mm 4,4 C 10,0 C 4,8 km/h (1 Bft)
30.05.2020 09:31 9,9 C 67 % 1022,2 hPa 0,0 l/m 3,2 km/h (1 Bft) N 360 0,000 mm 4,1 C 9,9 C 4,8 km/h (1 Bft)
30.05.2020 09:30 9,8 C 67 % 1022,2 hPa 0,0 l/m 3,2 km/h (1 Bft) N 360 0,000 mm 4,0 C 9,8 C 4,8 km/h (1 Bft)
30.05.2020 09:29 9,8 C 66 % 1022,2 hPa 0,0 l/m 3,2 km/h (1 Bft) N 360 0,000 mm 3,8 C 9,8 C 4,8 km/h (1 Bft)
30.05.2020 09:28 9,8 C 70 % 1022,2 hPa 0,0 l/m 4,8 km/h (1 Bft) N 360 0,000 mm 4,6 C 9,8 C 6,4 km/h (2 Bft)
30.05.2020 09:27 9,7 C 71 % 1022,2 hPa 0,0 l/m 6,4 km/h (2 Bft) N 360 0,000 mm 4,7 C 9,7 C 6,4 km/h (2 Bft)
30.05.2020 09:26 9,7 C 72 % 1022,2 hPa 0,0 l/m 4,8 km/h (1 Bft) N 360 0,000 mm 4,9 C 9,7 C 6,4 km/h (2 Bft)
30.05.2020 09:25 9,6 C 70 % 1022,2 hPa 0,0 l/m 4,8 km/h (1 Bft) N 360 0,000 mm 4,4 C 9,6 C 6,4 km/h (2 Bft)
30.05.2020 09:24 9,5 C 70 % 1022,2 hPa 0,0 l/m 4,8 km/h (1 Bft) N 360 0,000 mm 4,3 C 9,5 C 6,4 km/h (2 Bft)
30.05.2020 09:23 9,4 C 69 % 1022,2 hPa 0,0 l/m 6,4 km/h (2 Bft) N 360 0,000 mm 4,0 C 9,4 C 6,4 km/h (2 Bft)
30.05.2020 09:22 9,4 C 72 % 1022,2 hPa 0,0 l/m 3,2 km/h (1 Bft) N 360 0,000 mm 4,6 C 9,4 C 4,8 km/h (1 Bft)
30.05.2020 09:21 9,4 C 71 % 1022,3 hPa 0,0 l/m 4,8 km/h (1 Bft) N 360 0,000 mm 4,4 C 9,4 C 6,4 km/h (2 Bft)
30.05.2020 09:20 9,3 C 71 % 1022,4 hPa 0,0 l/m 6,4 km/h (2 Bft) N 360 0,000 mm 4,3 C 9,3 C 6,4 km/h (2 Bft)
30.05.2020 09:19 9,3 C 71 % 1022,4 hPa 0,0 l/m 4,8 km/h (1 Bft) N 360 0,000 mm 4,3 C 9,3 C 6,4 km/h (2 Bft)
30.05.2020 09:18 9,3 C 71 % 1022,4 hPa 0,0 l/m 6,4 km/h (2 Bft) N 360 0,000 mm 4,3 C 9,3 C 8,0 km/h (2 Bft)
30.05.2020 09:17 9,3 C 70 % 1022,4 hPa 0,0 l/m 8,0 km/h (2 Bft) N 360 0,000 mm 4,1 C 8,1 C 11,3 km/h (2 Bft)
30.05.2020 09:16 9,2 C 71 % 1022,4 hPa 0,0 l/m 12,9 km/h (3 Bft) N-NO 22 0,000 mm 4,2 C 5,1 C 14,5 km/h (3 Bft)
30.05.2020 09:15 9,2 C 72 % 1022,4 hPa 0,0 l/m 9,7 km/h (2 Bft) N 360 0,000 mm 4,4 C 6,9 C 12,9 km/h (3 Bft)
30.05.2020 09:14 9,2 C 73 % 1022,4 hPa 0,0 l/m 6,4 km/h (2 Bft) N 360 0,000 mm 4,6 C 9,2 C 8,0 km/h (2 Bft)
30.05.2020 09:13 9,2 C 72 % 1022,4 hPa 0,0 l/m 6,4 km/h (2 Bft) N 360 0,000 mm 4,4 C 9,2 C 8,0 km/h (2 Bft)
30.05.2020 09:12 9,2 C 72 % 1022,4 hPa 0,0 l/m 6,4 km/h (2 Bft) N-NO 22 0,000 mm 4,4 C 9,2 C 8,0 km/h (2 Bft)
30.05.2020 09:11 9,1 C 72 % 1022,5 hPa 0,0 l/m 8,0 km/h (2 Bft) N-NO 22 0,000 mm 4,3 C 7,9 C 11,3 km/h (2 Bft)
30.05.2020 09:10 9,1 C 74 % 1022,4 hPa 0,0 l/m 6,4 km/h (2 Bft) N-NO 22 0,000 mm 4,7 C 9,1 C 8,0 km/h (2 Bft)
30.05.2020 09:09 9,1 C 73 % 1022,4 hPa 0,0 l/m 6,4 km/h (2 Bft) N-NO 22 0,000 mm 4,5 C 9,1 C 8,0 km/h (2 Bft)
30.05.2020 09:08 9,1 C 73 % 1022,4 hPa 0,0 l/m 6,4 km/h (2 Bft) N-NO 22 0,000 mm 4,5 C 9,1 C 8,0 km/h (2 Bft)
30.05.2020 09:07 9,1 C 73 % 1022,4 hPa 0,0 l/m 4,8 km/h (1 Bft) N-NO 22 0,000 mm 4,5 C 9,1 C 6,4 km/h (2 Bft)
30.05.2020 09:06 9,1 C 72 % 1022,5 hPa 0,0 l/m 3,2 km/h (1 Bft) N-NO 22 0,000 mm 4,3 C 9,1 C 4,8 km/h (1 Bft)
30.05.2020 09:05 9,1 C 73 % 1022,5 hPa 0,0 l/m 6,4 km/h (2 Bft) N-NO 22 0,000 mm 4,5 C 9,1 C 8,0 km/h (2 Bft)
30.05.2020 09:04 9,1 C 72 % 1022,5 hPa 0,0 l/m 4,8 km/h (1 Bft) N-NO 22 0,000 mm 4,3 C 9,1 C 6,4 km/h (2 Bft)
30.05.2020 09:03 9,2 C 73 % 1022,6 hPa 0,0 l/m 11,3 km/h (2 Bft) N-NO 22 0,000 mm 4,6 C 6,0 C 14,5 km/h (3 Bft)
30.05.2020 09:02 9,2 C 73 % 1022,6 hPa 0,0 l/m 6,4 km/h (2 Bft) N-NO 22 0,000 mm 4,6 C 9,2 C 8,0 km/h (2 Bft)
30.05.2020 09:01 9,2 C 72 % 1022,6 hPa 0,0 l/m 6,4 km/h (2 Bft) N-NO 22 0,000 mm 4,4 C 9,2 C 11,3 km/h (2 Bft)
30.05.2020 09:00 9,2 C 72 % 1022,6 hPa 0,0 l/m 6,4 km/h (2 Bft) N 360 0,000 mm 4,4 C 9,2 C 8,0 km/h (2 Bft)
30.05.2020 08:59 9,3 C 72 % 1022,5 hPa 0,0 l/m 9,7 km/h (2 Bft) N-NO 22 0,000 mm 4,5 C 7,0 C 12,9 km/h (3 Bft)
30.05.2020 08:58 9,3 C 71 % 1022,6 hPa 0,0 l/m 11,3 km/h (2 Bft) N 360 0,000 mm 4,3 C 6,1 C 12,9 km/h (3 Bft)
30.05.2020 08:57 9,3 C 71 % 1022,5 hPa 0,0 l/m 11,3 km/h (2 Bft) N-NO 22 0,000 mm 4,3 C 6,1 C 12,9 km/h (3 Bft)
30.05.2020 08:56 9,3 C 70 % 1022,5 hPa 0,0 l/m 11,3 km/h (2 Bft) N 360 0,000 mm 4,1 C 6,1 C 14,5 km/h (3 Bft)
30.05.2020 08:55 9,4 C 71 % 1022,5 hPa 0,0 l/m 12,9 km/h (3 Bft) N-NO 22 0,000 mm 4,4 C 5,4 C 16,1 km/h (3 Bft)
30.05.2020 08:54 9,4 C 71 % 1022,5 hPa 0,0 l/m 9,7 km/h (2 Bft) N 360 0,000 mm 4,4 C 7,1 C 12,9 km/h (3 Bft)
30.05.2020 08:53 9,4 C 71 % 1022,5 hPa 0,0 l/m 8,0 km/h (2 Bft) N 360 0,000 mm 4,4 C 8,2 C 11,3 km/h (2 Bft)
30.05.2020 08:52 9,4 C 71 % 1022,5 hPa 0,0 l/m 6,4 km/h (2 Bft) N-NO 22 0,000 mm 4,4 C 9,4 C 8,0 km/h (2 Bft)
30.05.2020 08:51 9,3 C 71 % 1022,5 hPa 0,0 l/m 8,0 km/h (2 Bft) N-NO 22 0,000 mm 4,3 C 8,1 C 11,3 km/h (2 Bft)
30.05.2020 08:50 9,3 C 70 % 1022,5 hPa 0,0 l/m 6,4 km/h (2 Bft) N-NO 22 0,000 mm 4,1 C 9,3 C 8,0 km/h (2 Bft)
30.05.2020 08:49 9,3 C 70 % 1022,4 hPa 0,0 l/m 6,4 km/h (2 Bft) N-NO 22 0,000 mm 4,1 C 9,3 C 8,0 km/h (2 Bft)
30.05.2020 08:48 9,2 C 70 % 1022,4 hPa 0,0 l/m 6,4 km/h (2 Bft) N-NO 22 0,000 mm 4,0 C 9,2 C 8,0 km/h (2 Bft)
30.05.2020 08:47 9,2 C 71 % 1022,4 hPa 0,0 l/m 8,0 km/h (2 Bft) N-NO 22 0,000 mm 4,2 C 8,0 C 11,3 km/h (2 Bft)
30.05.2020 08:46 9,2 C 72 % 1022,4 hPa 0,0 l/m 9,7 km/h (2 Bft) N-NO 22 0,000 mm 4,4 C 6,9 C 11,3 km/h (2 Bft)
30.05.2020 08:45 9,1 C 71 % 1022,4 hPa 0,0 l/m 11,3 km/h (2 Bft) N-NO 22 0,000 mm 4,1 C 5,9 C 14,5 km/h (3 Bft)
30.05.2020 08:44 9,1 C 72 % 1022,4 hPa 0,0 l/m 9,7 km/h (2 Bft) N-NO 22 0,000 mm 4,3 C 6,8 C 12,9 km/h (3 Bft)
30.05.2020 08:43 9,1 C 72 % 1022,4 hPa 0,0 l/m 9,7 km/h (2 Bft) N-NO 22 0,000 mm 4,3 C 6,8 C 12,9 km/h (3 Bft)
30.05.2020 08:42 9,1 C 72 % 1022,4 hPa 0,0 l/m 8,0 km/h (2 Bft) N-NO 22 0,000 mm 4,3 C 7,9 C 11,3 km/h (2 Bft)
30.05.2020 08:41 9,1 C 71 % 1022,4 hPa 0,0 l/m 8,0 km/h (2 Bft) N-NO 22 0,000 mm 4,1 C 7,9 C 11,3 km/h (2 Bft)
30.05.2020 08:40 9,0 C 73 % 1022,4 hPa 0,0 l/m 12,9 km/h (3 Bft) N-NO 22 0,000 mm 4,4 C 4,9 C 14,5 km/h (3 Bft)
30.05.2020 08:39 9,0 C 73 % 1022,5 hPa 0,0 l/m 9,7 km/h (2 Bft) N 360 0,000 mm 4,4 C 6,7 C 12,9 km/h (3 Bft)
30.05.2020 08:38 9,0 C 72 % 1022,4 hPa 0,0 l/m 9,7 km/h (2 Bft) N 360 0,000 mm 4,2 C 6,7 C 14,5 km/h (3 Bft)
30.05.2020 08:37 9,0 C 71 % 1022,3 hPa 0,0 l/m 14,5 km/h (3 Bft) N 360 0,000 mm 4,0 C 4,1 C 19,3 km/h (3 Bft)
30.05.2020 08:36 8,9 C 73 % 1022,4 hPa 0,0 l/m 14,5 km/h (3 Bft) N 360 0,000 mm 4,3 C 4,0 C 16,1 km/h (3 Bft)
30.05.2020 08:35 8,9 C 72 % 1022,4 hPa 0,0 l/m 14,5 km/h (3 Bft) N 360 0,000 mm 4,1 C 4,0 C 17,7 km/h (3 Bft)
30.05.2020 08:34 8,9 C 73 % 1022,4 hPa 0,0 l/m 16,1 km/h (3 Bft) N-NO 22 0,000 mm 4,3 C 3,3 C 19,3 km/h (3 Bft)
30.05.2020 08:33 8,9 C 73 % 1022,4 hPa 0,0 l/m 12,9 km/h (3 Bft) N 360 0,000 mm 4,3 C 4,8 C 16,1 km/h (3 Bft)
30.05.2020 08:32 8,9 C 72 % 1022,3 hPa 0,0 l/m 14,5 km/h (3 Bft) N 360 0,000 mm 4,1 C 4,0 C 17,7 km/h (3 Bft)
30.05.2020 08:31 8,8 C 73 % 1022,4 hPa 0,0 l/m 17,7 km/h (3 Bft) N-NO 22 0,000 mm 4,2 C 2,6 C 20,9 km/h (4 Bft)
30.05.2020 08:30 8,8 C 73 % 1022,4 hPa 0,0 l/m 12,9 km/h (3 Bft) N 360 0,000 mm 4,2 C 4,7 C 16,1 km/h (3 Bft)
30.05.2020 08:29 8,8 C 73 % 1022,4 hPa 0,0 l/m 12,9 km/h (3 Bft) N 360 0,000 mm 4,2 C 4,7 C 14,5 km/h (3 Bft)
30.05.2020 08:28 8,8 C 73 % 1022,3 hPa 0,0 l/m 14,5 km/h (3 Bft) N-NO 22 0,000 mm 4,2 C 3,9 C 17,7 km/h (3 Bft)
30.05.2020 08:27 8,8 C 72 % 1022,4 hPa 0,0 l/m 16,1 km/h (3 Bft) N-NO 22 0,000 mm 4,0 C 3,2 C 17,7 km/h (3 Bft)
30.05.2020 08:26 8,8 C 73 % 1022,4 hPa 0,0 l/m 16,1 km/h (3 Bft) N-NO 22 0,000 mm 4,2 C 3,2 C 19,3 km/h (3 Bft)
30.05.2020 08:25 8,7 C 73 % 1022,4 hPa 0,0 l/m 14,5 km/h (3 Bft) N-NO 22 0,000 mm 4,1 C 3,8 C 17,7 km/h (3 Bft)
30.05.2020 08:24 8,7 C 73 % 1022,5 hPa 0,0 l/m 11,3 km/h (2 Bft) N 360 0,000 mm 4,1 C 5,4 C 14,5 km/h (3 Bft)
30.05.2020 08:23 8,7 C 74 % 1022,4 hPa 0,0 l/m 14,5 km/h (3 Bft) N 360 0,000 mm 4,3 C 3,8 C 19,3 km/h (3 Bft)
30.05.2020 08:22 8,7 C 74 % 1022,4 hPa 0,0 l/m 16,1 km/h (3 Bft) N 360 0,000 mm 4,3 C 3,1 C 19,3 km/h (3 Bft)
30.05.2020 08:21 8,7 C 74 % 1022,4 hPa 0,0 l/m 14,5 km/h (3 Bft) N 360 0,000 mm 4,3 C 3,8 C 19,3 km/h (3 Bft)
30.05.2020 08:20 8,7 C 74 % 1022,5 hPa 0,0 l/m 14,5 km/h (3 Bft) N 360 0,000 mm 4,3 C 3,8 C 16,1 km/h (3 Bft)
30.05.2020 08:19 8,7 C 74 % 1022,5 hPa 0,0 l/m 14,5 km/h (3 Bft) N 360 0,000 mm 4,3 C 3,8 C 17,7 km/h (3 Bft)
30.05.2020 08:18 8,7 C 74 % 1022,4 hPa 0,0 l/m 12,9 km/h (3 Bft) N 360 0,000 mm 4,3 C 4,6 C 16,1 km/h (3 Bft)
30.05.2020 08:17 8,8 C 74 % 1022,5 hPa 0,0 l/m 14,5 km/h (3 Bft) N 360 0,000 mm 4,4 C 3,9 C 16,1 km/h (3 Bft)
30.05.2020 08:16 8,8 C 73 % 1022,5 hPa 0,0 l/m 12,9 km/h (3 Bft) N 360 0,000 mm 4,2 C 4,7 C 14,5 km/h (3 Bft)
30.05.2020 08:15 8,8 C 73 % 1022,5 hPa 0,0 l/m 12,9 km/h (3 Bft) N-NO 22 0,000 mm 4,2 C 4,7 C 14,5 km/h (3 Bft)
30.05.2020 08:14 8,8 C 73 % 1022,5 hPa 0,0 l/m 16,1 km/h (3 Bft) N 360 0,000 mm 4,2 C 3,2 C 17,7 km/h (3 Bft)
30.05.2020 08:13 8,8 C 74 % 1022,5 hPa 0,0 l/m 12,9 km/h (3 Bft) N 360 0,000 mm 4,4 C 4,7 C 17,7 km/h (3 Bft)
30.05.2020 08:12 8,8 C 73 % 1022,5 hPa 0,0 l/m 12,9 km/h (3 Bft) N 360 0,000 mm 4,2 C 4,7 C 16,1 km/h (3 Bft)
30.05.2020 08:11 8,8 C 72 % 1022,5 hPa 0,0 l/m 14,5 km/h (3 Bft) N 360 0,000 mm 4,0 C 3,9 C 16,1 km/h (3 Bft)
30.05.2020 08:10 8,8 C 73 % 1022,4 hPa 0,0 l/m 17,7 km/h (3 Bft) N 360 0,000 mm 4,2 C 2,6 C 19,3 km/h (3 Bft)
30.05.2020 08:09 8,8 C 73 % 1022,5 hPa 0,0 l/m 14,5 km/h (3 Bft) N-NO 22 0,000 mm 4,2 C 3,9 C 17,7 km/h (3 Bft)
30.05.2020 08:08 8,8 C 73 % 1022,5 hPa 0,0 l/m 12,9 km/h (3 Bft) N 360 0,000 mm 4,2 C 4,7 C 16,1 km/h (3 Bft)
30.05.2020 08:07 8,8 C 73 % 1022,5 hPa 0,0 l/m 11,3 km/h (2 Bft) N 360 0,000 mm 4,2 C 5,5 C 14,5 km/h (3 Bft)
30.05.2020 08:06 8,8 C 73 % 1022,4 hPa 0,0 l/m 16,1 km/h (3 Bft) N-NO 22 0,000 mm 4,2 C 3,2 C 19,3 km/h (3 Bft)
30.05.2020 08:05 8,8 C 73 % 1022,4 hPa 0,0 l/m 14,5 km/h (3 Bft) N 360 0,000 mm 4,2 C 3,9 C 17,7 km/h (3 Bft)
30.05.2020 08:04 8,8 C 73 % 1022,4 hPa 0,0 l/m 14,5 km/h (3 Bft) N 360 0,000 mm 4,2 C 3,9 C 17,7 km/h (3 Bft)
30.05.2020 08:03 8,8 C 73 % 1022,5 hPa 0,0 l/m 14,5 km/h (3 Bft) N 360 0,000 mm 4,2 C 3,9 C 17,7 km/h (3 Bft)
30.05.2020 08:02 8,8 C 73 % 1022,4 hPa 0,0 l/m 16,1 km/h (3 Bft) N 360 0,000 mm 4,2 C 3,2 C 19,3 km/h (3 Bft)
30.05.2020 08:01 8,8 C 73 % 1022,4 hPa 0,0 l/m 17,7 km/h (3 Bft) N 360 0,000 mm 4,2 C 2,6 C 20,9 km/h (4 Bft)
30.05.2020 08:00 8,8 C 73 % 1022,4 hPa 0,0 l/m 17,7 km/h (3 Bft) N 360 0,000 mm 4,2 C 2,6 C 19,3 km/h (3 Bft)
30.05.2020 07:59 8,8 C 72 % 1022,5 hPa 0,0 l/m 12,9 km/h (3 Bft) N-NO 22 0,000 mm 4,0 C 4,7 C 14,5 km/h (3 Bft)
30.05.2020 07:58 8,8 C 73 % 1022,4 hPa 0,0 l/m 14,5 km/h (3 Bft) N 360 0,000 mm 4,2 C 3,9 C 19,3 km/h (3 Bft)
30.05.2020 07:57 8,8 C 72 % 1022,4 hPa 0,0 l/m 12,9 km/h (3 Bft) N 360 0,000 mm 4,0 C 4,7 C 16,1 km/h (3 Bft)
30.05.2020 07:56 8,8 C 72 % 1022,4 hPa 0,0 l/m 16,1 km/h (3 Bft) N 360 0,000 mm 4,0 C 3,2 C 20,9 km/h (4 Bft)
30.05.2020 07:55 8,8 C 72 % 1022,4 hPa 0,0 l/m 17,7 km/h (3 Bft) N 360 0,000 mm 4,0 C 2,6 C 20,9 km/h (4 Bft)
30.05.2020 07:54 8,8 C 72 % 1022,4 hPa 0,0 l/m 14,5 km/h (3 Bft) N 360 0,000 mm 4,0 C 3,9 C 17,7 km/h (3 Bft)
30.05.2020 07:53 8,7 C 73 % 1022,3 hPa 0,0 l/m 16,1 km/h (3 Bft) N 360 0,000 mm 4,1 C 3,1 C 17,7 km/h (3 Bft)
30.05.2020 07:52 8,7 C 72 % 1022,4 hPa 0,0 l/m 16,1 km/h (3 Bft) N 360 0,000 mm 3,9 C 3,1 C 19,3 km/h (3 Bft)
30.05.2020 07:51 8,7 C 73 % 1022,4 hPa 0,0 l/m 11,3 km/h (2 Bft) N 360 0,000 mm 4,1 C 5,4 C 16,1 km/h (3 Bft)
30.05.2020 07:50 8,7 C 73 % 1022,4 hPa 0,0 l/m 11,3 km/h (2 Bft) N 360 0,000 mm 4,1 C 5,4 C 14,5 km/h (3 Bft)
30.05.2020 07:49 8,7 C 72 % 1022,4 hPa 0,0 l/m 11,3 km/h (2 Bft) N-NO 22 0,000 mm 3,9 C 5,4 C 14,5 km/h (3 Bft)
30.05.2020 07:48 8,7 C 72 % 1022,4 hPa 0,0 l/m 16,1 km/h (3 Bft) N 360 0,000 mm 3,9 C 3,1 C 17,7 km/h (3 Bft)
30.05.2020 07:47 8,7 C 72 % 1022,3 hPa 0,0 l/m 14,5 km/h (3 Bft) N 360 0,000 mm 3,9 C 3,8 C 19,3 km/h (3 Bft)
30.05.2020 07:46 8,7 C 72 % 1022,5 hPa 0,0 l/m 12,9 km/h (3 Bft) N 360 0,000 mm 3,9 C 4,6 C 19,3 km/h (3 Bft)
30.05.2020 07:45 8,7 C 72 % 1022,3 hPa 0,0 l/m 12,9 km/h (3 Bft) N 360 0,000 mm 3,9 C 4,6 C 16,1 km/h (3 Bft)
30.05.2020 07:44 8,6 C 72 % 1022,4 hPa 0,0 l/m 6,4 km/h (2 Bft) N-NW 337 0,000 mm 3,8 C 8,6 C 9,7 km/h (2 Bft)
30.05.2020 07:43 8,6 C 72 % 1022,4 hPa 0,0 l/m 12,9 km/h (3 Bft) N 360 0,000 mm 3,8 C 4,4 C 14,5 km/h (3 Bft)
30.05.2020 07:42 8,6 C 72 % 1022,4 hPa 0,0 l/m 12,9 km/h (3 Bft) N 360 0,000 mm 3,8 C 4,4 C 14,5 km/h (3 Bft)
30.05.2020 07:41 8,6 C 72 % 1022,4 hPa 0,0 l/m 12,9 km/h (3 Bft) N 360 0,000 mm 3,8 C 4,4 C 17,7 km/h (3 Bft)
30.05.2020 07:40 8,6 C 73 % 1022,4 hPa 0,0 l/m 14,5 km/h (3 Bft) N 360 0,000 mm 4,0 C 3,7 C 17,7 km/h (3 Bft)
30.05.2020 07:39 8,6 C 72 % 1022,5 hPa 0,0 l/m 12,9 km/h (3 Bft) N 360 0,000 mm 3,8 C 4,4 C 16,1 km/h (3 Bft)
30.05.2020 07:38 8,6 C 72 % 1022,4 hPa 0,0 l/m 11,3 km/h (2 Bft) N 360 0,000 mm 3,8 C 5,3 C 14,5 km/h (3 Bft)
30.05.2020 07:37 8,6 C 72 % 1022,5 hPa 0,0 l/m 12,9 km/h (3 Bft) N-NO 22 0,000 mm 3,8 C 4,4 C 16,1 km/h (3 Bft)
30.05.2020 07:36 8,6 C 72 % 1022,5 hPa 0,0 l/m 11,3 km/h (2 Bft) N 360 0,000 mm 3,8 C 5,3 C 14,5 km/h (3 Bft)
30.05.2020 07:35 8,7 C 71 % 1022,4 hPa 0,0 l/m 12,9 km/h (3 Bft) N 360 0,000 mm 3,7 C 4,6 C 14,5 km/h (3 Bft)
30.05.2020 07:34 8,7 C 71 % 1022,4 hPa 0,0 l/m 12,9 km/h (3 Bft) N 360 0,000 mm 3,7 C 4,6 C 16,1 km/h (3 Bft)
30.05.2020 07:33 8,7 C 71 % 1022,4 hPa 0,0 l/m 16,1 km/h (3 Bft) N 360 0,000 mm 3,7 C 3,1 C 17,7 km/h (3 Bft)
30.05.2020 07:32 8,7 C 71 % 1022,4 hPa 0,0 l/m 14,5 km/h (3 Bft) N 360 0,000 mm 3,7 C 3,8 C 14,5 km/h (3 Bft)
30.05.2020 07:31 8,7 C 71 % 1022,5 hPa 0,0 l/m 11,3 km/h (2 Bft) N 360 0,000 mm 3,7 C 5,4 C 16,1 km/h (3 Bft)
30.05.2020 07:30 8,7 C 71 % 1022,5 hPa 0,0 l/m 9,7 km/h (2 Bft) N-NO 22 0,000 mm 3,7 C 6,3 C 12,9 km/h (3 Bft)
30.05.2020 07:29 8,7 C 71 % 1022,4 hPa 0,0 l/m 14,5 km/h (3 Bft) N 360 0,000 mm 3,7 C 3,8 C 17,7 km/h (3 Bft)
30.05.2020 07:28 8,7 C 71 % 1022,4 hPa 0,0 l/m 14,5 km/h (3 Bft) N 360 0,000 mm 3,7 C 3,8 C 17,7 km/h (3 Bft)
30.05.2020 07:27 8,7 C 71 % 1022,4 hPa 0,0 l/m 12,9 km/h (3 Bft) N 360 0,000 mm 3,7 C 4,6 C 16,1 km/h (3 Bft)
30.05.2020 07:26 8,7 C 71 % 1022,4 hPa 0,0 l/m 12,9 km/h (3 Bft) N 360 0,000 mm 3,7 C 4,6 C 16,1 km/h (3 Bft)
30.05.2020 07:25 8,7 C 70 % 1022,4 hPa 0,0 l/m 11,3 km/h (2 Bft) N 360 0,000 mm 3,5 C 5,4 C 14,5 km/h (3 Bft)
30.05.2020 07:24 8,7 C 71 % 1022,4 hPa 0,0 l/m 12,9 km/h (3 Bft) N-NW 337 0,000 mm 3,7 C 4,6 C 14,5 km/h (3 Bft)
30.05.2020 07:23 8,7 C 71 % 1022,4 hPa 0,0 l/m 12,9 km/h (3 Bft) N-NW 337 0,000 mm 3,7 C 4,6 C 16,1 km/h (3 Bft)
30.05.2020 07:22 8,7 C 70 % 1022,4 hPa 0,0 l/m 14,5 km/h (3 Bft) N 360 0,000 mm 3,5 C 3,8 C 16,1 km/h (3 Bft)
30.05.2020 07:21 8,7 C 70 % 1022,4 hPa 0,0 l/m 12,9 km/h (3 Bft) N 360 0,000 mm 3,5 C 4,6 C 16,1 km/h (3 Bft)
30.05.2020 07:20 8,7 C 70 % 1022,4 hPa 0,0 l/m 11,3 km/h (2 Bft) N 360 0,000 mm 3,5 C 5,4 C 14,5 km/h (3 Bft)
30.05.2020 07:19 8,7 C 71 % 1022,4 hPa 0,0 l/m 11,3 km/h (2 Bft) N 360 0,000 mm 3,7 C 5,4 C 12,9 km/h (3 Bft)
30.05.2020 07:18 8,7 C 71 % 1022,3 hPa 0,0 l/m 9,7 km/h (2 Bft) N 360 0,000 mm 3,7 C 6,3 C 12,9 km/h (3 Bft)
30.05.2020 07:17 8,6 C 71 % 1022,4 hPa 0,0 l/m 12,9 km/h (3 Bft) N 360 0,000 mm 3,6 C 4,4 C 14,5 km/h (3 Bft)
30.05.2020 07:16 8,6 C 71 % 1022,3 hPa 0,0 l/m 11,3 km/h (2 Bft) N 360 0,000 mm 3,6 C 5,3 C 16,1 km/h (3 Bft)
30.05.2020 07:15 8,6 C 71 % 1022,3 hPa 0,0 l/m 9,7 km/h (2 Bft) N 360 0,000 mm 3,6 C 6,2 C 12,9 km/h (3 Bft)
30.05.2020 07:14 8,7 C 71 % 1022,4 hPa 0,0 l/m 9,7 km/h (2 Bft) N 360 0,000 mm 3,7 C 6,3 C 12,9 km/h (3 Bft)
30.05.2020 07:13 8,7 C 71 % 1022,4 hPa 0,0 l/m 11,3 km/h (2 Bft) N 360 0,000 mm 3,7 C 5,4 C 12,9 km/h (3 Bft)
30.05.2020 07:12 8,7 C 71 % 1022,3 hPa 0,0 l/m 11,3 km/h (2 Bft) N 360 0,000 mm 3,7 C 5,4 C 12,9 km/h (3 Bft)
30.05.2020 07:11 8,7 C 71 % 1022,4 hPa 0,0 l/m 11,3 km/h (2 Bft) N 360 0,000 mm 3,7 C 5,4 C 14,5 km/h (3 Bft)
30.05.2020 07:10 8,6 C 71 % 1022,3 hPa 0,0 l/m 12,9 km/h (3 Bft) N 360 0,000 mm 3,6 C 4,4 C 14,5 km/h (3 Bft)
30.05.2020 07:09 8,6 C 71 % 1022,3 hPa 0,0 l/m 12,9 km/h (3 Bft) N-NO 22 0,000 mm 3,6 C 4,4 C 14,5 km/h (3 Bft)
30.05.2020 07:08 8,6 C 71 % 1022,4 hPa 0,0 l/m 11,3 km/h (2 Bft) N 360 0,000 mm 3,6 C 5,3 C 12,9 km/h (3 Bft)
30.05.2020 07:07 8,6 C 71 % 1022,3 hPa 0,0 l/m 11,3 km/h (2 Bft) N 360 0,000 mm 3,6 C 5,3 C 12,9 km/h (3 Bft)
30.05.2020 07:06 8,6 C 71 % 1022,3 hPa 0,0 l/m 12,9 km/h (3 Bft) N-NO 22 0,000 mm 3,6 C 4,4 C 16,1 km/h (3 Bft)
30.05.2020 07:05 8,5 C 71 % 1022,3 hPa 0,0 l/m 12,9 km/h (3 Bft) N 360 0,000 mm 3,5 C 4,3 C 14,5 km/h (3 Bft)
30.05.2020 07:04 8,4 C 71 % 1022,3 hPa 0,0 l/m 12,9 km/h (3 Bft) N 360 0,000 mm 3,5 C 4,2 C 14,5 km/h (3 Bft)
30.05.2020 07:03 8,4 C 71 % 1022,4 hPa 0,0 l/m 12,9 km/h (3 Bft) N-NO 22 0,000 mm 3,5 C 4,2 C 16,1 km/h (3 Bft)
30.05.2020 07:02 8,4 C 72 % 1022,3 hPa 0,0 l/m 12,9 km/h (3 Bft) N-NO 22 0,000 mm 3,7 C 4,2 C 14,5 km/h (3 Bft)
30.05.2020 07:01 8,3 C 72 % 1022,3 hPa 0,0 l/m 12,9 km/h (3 Bft) N 360 0,000 mm 3,6 C 4,1 C 14,5 km/h (3 Bft)
30.05.2020 07:00 8,3 C 72 % 1022,3 hPa 0,0 l/m 14,5 km/h (3 Bft) N 360 0,000 mm 3,6 C 3,3 C 16,1 km/h (3 Bft)
30.05.2020 06:59 8,3 C 72 % 1022,3 hPa 0,0 l/m 12,9 km/h (3 Bft) N-NO 22 0,000 mm 3,6 C 4,1 C 16,1 km/h (3 Bft)
30.05.2020 06:58 8,3 C 72 % 1022,3 hPa 0,0 l/m 14,5 km/h (3 Bft) N-NO 22 0,000 mm 3,6 C 3,3 C 16,1 km/h (3 Bft)
30.05.2020 06:57 8,3 C 73 % 1022,3 hPa 0,0 l/m 14,5 km/h (3 Bft) N-NO 22 0,000 mm 3,8 C 3,3 C 17,7 km/h (3 Bft)
30.05.2020 06:56 8,3 C 72 % 1022,4 hPa 0,0 l/m 14,5 km/h (3 Bft) N-NO 22 0,000 mm 3,6 C 3,3 C 16,1 km/h (3 Bft)
30.05.2020 06:55 8,3 C 72 % 1022,4 hPa 0,0 l/m 14,5 km/h (3 Bft) N 360 0,000 mm 3,6 C 3,3 C 16,1 km/h (3 Bft)
30.05.2020 06:54 8,3 C 72 % 1022,4 hPa 0,0 l/m 14,5 km/h (3 Bft) N 360 0,000 mm 3,6 C 3,3 C 16,1 km/h (3 Bft)
30.05.2020 06:53 8,3 C 72 % 1022,4 hPa 0,0 l/m 14,5 km/h (3 Bft) N 360 0,000 mm 3,6 C 3,3 C 16,1 km/h (3 Bft)
30.05.2020 06:52 8,3 C 72 % 1022,4 hPa 0,0 l/m 16,1 km/h (3 Bft) N 360 0,000 mm 3,6 C 2,6 C 17,7 km/h (3 Bft)
30.05.2020 06:51 8,3 C 72 % 1022,4 hPa 0,0 l/m 14,5 km/h (3 Bft) N 360 0,000 mm 3,6 C 3,3 C 17,7 km/h (3 Bft)
30.05.2020 06:50 8,3 C 72 % 1022,4 hPa 0,0 l/m 16,1 km/h (3 Bft) N 360 0,000 mm 3,6 C 2,6 C 17,7 km/h (3 Bft)
30.05.2020 06:49 8,3 C 72 % 1022,4 hPa 0,0 l/m 16,1 km/h (3 Bft) N 360 0,000 mm 3,6 C 2,6 C 17,7 km/h (3 Bft)
30.05.2020 06:48 8,3 C 72 % 1022,5 hPa 0,0 l/m 12,9 km/h (3 Bft) N-NO 22 0,000 mm 3,6 C 4,1 C 14,5 km/h (3 Bft)
30.05.2020 06:47 8,3 C 72 % 1022,4 hPa 0,0 l/m 12,9 km/h (3 Bft) N-NO 22 0,000 mm 3,6 C 4,1 C 14,5 km/h (3 Bft)
30.05.2020 06:46 8,3 C 72 % 1022,5 hPa 0,0 l/m 12,9 km/h (3 Bft) N-NO 22 0,000 mm 3,6 C 4,1 C 14,5 km/h (3 Bft)
30.05.2020 06:45 8,3 C 72 % 1022,5 hPa 0,0 l/m 12,9 km/h (3 Bft) N-NO 22 0,000 mm 3,6 C 4,1 C 14,5 km/h (3 Bft)
30.05.2020 06:44 8,3 C 72 % 1022,4 hPa 0,0 l/m 14,5 km/h (3 Bft) N-NO 22 0,000 mm 3,6 C 3,3 C 16,1 km/h (3 Bft)
30.05.2020 06:43 8,3 C 72 % 1022,4 hPa 0,0 l/m 14,5 km/h (3 Bft) N-NO 22 0,000 mm 3,6 C 3,3 C 16,1 km/h (3 Bft)
30.05.2020 06:42 8,4 C 72 % 1022,5 hPa 0,0 l/m 12,9 km/h (3 Bft) N-NO 22 0,000 mm 3,7 C 4,2 C 16,1 km/h (3 Bft)
30.05.2020 06:41 8,4 C 71 % 1022,5 hPa 0,0 l/m 12,9 km/h (3 Bft) N 360 0,000 mm 3,5 C 4,2 C 16,1 km/h (3 Bft)
30.05.2020 06:40 8,4 C 72 % 1022,4 hPa 0,0 l/m 12,9 km/h (3 Bft) N-NO 22 0,000 mm 3,7 C 4,2 C 16,1 km/h (3 Bft)
30.05.2020 06:39 8,5 C 71 % 1022,4 hPa 0,0 l/m 14,5 km/h (3 Bft) N-NO 22 0,000 mm 3,5 C 3,5 C 16,1 km/h (3 Bft)
30.05.2020 06:38 8,5 C 71 % 1022,5 hPa 0,0 l/m 11,3 km/h (2 Bft) N-NO 22 0,000 mm 3,5 C 5,2 C 14,5 km/h (3 Bft)
30.05.2020 06:37 8,6 C 71 % 1022,5 hPa 0,0 l/m 11,3 km/h (2 Bft) N-NO 22 0,000 mm 3,6 C 5,3 C 12,9 km/h (3 Bft)
30.05.2020 06:36 8,6 C 71 % 1022,5 hPa 0,0 l/m 8,0 km/h (2 Bft) N-NO 22 0,000 mm 3,6 C 7,4 C 11,3 km/h (2 Bft)
30.05.2020 06:35 8,6 C 70 % 1022,6 hPa 0,0 l/m 9,7 km/h (2 Bft) N-NO 22 0,000 mm 3,4 C 6,2 C 12,9 km/h (3 Bft)
30.05.2020 06:34 8,6 C 70 % 1022,6 hPa 0,0 l/m 14,5 km/h (3 Bft) N-NO 22 0,000 mm 3,4 C 3,7 C 17,7 km/h (3 Bft)
30.05.2020 06:33 8,6 C 70 % 1022,6 hPa 0,0 l/m 12,9 km/h (3 Bft) N-NO 22 0,000 mm 3,4 C 4,4 C 16,1 km/h (3 Bft)
30.05.2020 06:32 8,6 C 70 % 1022,6 hPa 0,0 l/m 11,3 km/h (2 Bft) N-NO 22 0,000 mm 3,4 C 5,3 C 14,5 km/h (3 Bft)
30.05.2020 06:31 8,7 C 70 % 1022,6 hPa 0,0 l/m 14,5 km/h (3 Bft) N-NO 22 0,000 mm 3,5 C 3,8 C 16,1 km/h (3 Bft)
30.05.2020 06:30 8,7 C 70 % 1022,6 hPa 0,0 l/m 14,5 km/h (3 Bft) N 360 0,000 mm 3,5 C 3,8 C 16,1 km/h (3 Bft)
30.05.2020 06:29 8,7 C 69 % 1022,6 hPa 0,0 l/m 12,9 km/h (3 Bft) N 360 0,000 mm 3,3 C 4,6 C 14,5 km/h (3 Bft)
30.05.2020 06:28 8,7 C 69 % 1022,6 hPa 0,0 l/m 14,5 km/h (3 Bft) N-NO 22 0,000 mm 3,3 C 3,8 C 14,5 km/h (3 Bft)
30.05.2020 06:27 8,8 C 69 % 1022,6 hPa 0,0 l/m 11,3 km/h (2 Bft) N 360 0,000 mm 3,4 C 5,5 C 12,9 km/h (3 Bft)
30.05.2020 06:26 8,8 C 69 % 1022,6 hPa 0,0 l/m 9,7 km/h (2 Bft) N 360 0,000 mm 3,4 C 6,5 C 14,5 km/h (3 Bft)
30.05.2020 06:25 8,8 C 69 % 1022,6 hPa 0,0 l/m 11,3 km/h (2 Bft) N 360 0,000 mm 3,4 C 5,5 C 14,5 km/h (3 Bft)
30.05.2020 06:24 8,8 C 69 % 1022,6 hPa 0,0 l/m 9,7 km/h (2 Bft) N 360 0,000 mm 3,4 C 6,5 C 12,9 km/h (3 Bft)
30.05.2020 06:23 8,8 C 68 % 1022,6 hPa 0,0 l/m 9,7 km/h (2 Bft) N 360 0,000 mm 3,2 C 6,5 C 12,9 km/h (3 Bft)
30.05.2020 06:22 8,8 C 69 % 1022,6 hPa 0,0 l/m 9,7 km/h (2 Bft) N 360 0,000 mm 3,4 C 6,5 C 12,9 km/h (3 Bft)
30.05.2020 06:21 8,8 C 68 % 1022,6 hPa 0,0 l/m 9,7 km/h (2 Bft) N 360 0,000 mm 3,2 C 6,5 C 14,5 km/h (3 Bft)
30.05.2020 06:20 8,8 C 68 % 1022,6 hPa 0,0 l/m 9,7 km/h (2 Bft) N 360 0,000 mm 3,2 C 6,5 C 11,3 km/h (2 Bft)
30.05.2020 06:19 8,8 C 68 % 1022,7 hPa 0,0 l/m 11,3 km/h (2 Bft) N 360 0,000 mm 3,2 C 5,5 C 12,9 km/h (3 Bft)
30.05.2020 06:18 8,8 C 68 % 1022,6 hPa 0,0 l/m 12,9 km/h (3 Bft) N 360 0,000 mm 3,2 C 4,7 C 14,5 km/h (3 Bft)
30.05.2020 06:17 8,8 C 68 % 1022,7 hPa 0,0 l/m 14,5 km/h (3 Bft) N 360 0,000 mm 3,2 C 3,9 C 16,1 km/h (3 Bft)
30.05.2020 06:16 8,7 C 68 % 1022,7 hPa 0,0 l/m 14,5 km/h (3 Bft) N 360 0,000 mm 3,1 C 3,8 C 16,1 km/h (3 Bft)
30.05.2020 06:15 8,7 C 69 % 1022,6 hPa 0,0 l/m 14,5 km/h (3 Bft) N 360 0,000 mm 3,3 C 3,8 C 16,1 km/h (3 Bft)
30.05.2020 06:14 8,7 C 69 % 1022,7 hPa 0,0 l/m 14,5 km/h (3 Bft) N 360 0,000 mm 3,3 C 3,8 C 16,1 km/h (3 Bft)
30.05.2020 06:13 8,7 C 69 % 1022,6 hPa 0,0 l/m 14,5 km/h (3 Bft) N 360 0,000 mm 3,3 C 3,8 C 16,1 km/h (3 Bft)
30.05.2020 06:12 8,6 C 70 % 1022,7 hPa 0,0 l/m 14,5 km/h (3 Bft) N 360 0,000 mm 3,4 C 3,7 C 16,1 km/h (3 Bft)
30.05.2020 06:11 8,6 C 70 % 1022,6 hPa 0,0 l/m 14,5 km/h (3 Bft) N 360 0,000 mm 3,4 C 3,7 C 16,1 km/h (3 Bft)
30.05.2020 06:10 8,6 C 70 % 1022,6 hPa 0,0 l/m 16,1 km/h (3 Bft) N 360 0,000 mm 3,4 C 3,0 C 17,7 km/h (3 Bft)
30.05.2020 06:09 8,5 C 71 % 1022,7 hPa 0,0 l/m 14,5 km/h (3 Bft) N 360 0,000 mm 3,5 C 3,5 C 16,1 km/h (3 Bft)
30.05.2020 06:08 8,4 C 71 % 1022,7 hPa 0,0 l/m 12,9 km/h (3 Bft) N 360 0,000 mm 3,5 C 4,2 C 14,5 km/h (3 Bft)
30.05.2020 06:07 8,4 C 71 % 1022,6 hPa 0,0 l/m 12,9 km/h (3 Bft) N 360 0,000 mm 3,5 C 4,2 C 16,1 km/h (3 Bft)
30.05.2020 06:06 8,3 C 71 % 1022,6 hPa 0,0 l/m 12,9 km/h (3 Bft) N 360 0,000 mm 3,4 C 4,1 C 14,5 km/h (3 Bft)
30.05.2020 06:05 8,3 C 71 % 1022,7 hPa 0,0 l/m 11,3 km/h (2 Bft) N 360 0,000 mm 3,4 C 4,9 C 14,5 km/h (3 Bft)
30.05.2020 06:04 8,3 C 72 % 1022,6 hPa 0,0 l/m 11,3 km/h (2 Bft) N 360 0,000 mm 3,6 C 4,9 C 12,9 km/h (3 Bft)
30.05.2020 06:03 8,3 C 72 % 1022,7 hPa 0,0 l/m 11,3 km/h (2 Bft) N 360 0,000 mm 3,6 C 4,9 C 12,9 km/h (3 Bft)
30.05.2020 06:02 8,2 C 72 % 1022,7 hPa 0,0 l/m 11,3 km/h (2 Bft) N 360 0,000 mm 3,5 C 4,8 C 12,9 km/h (3 Bft)
30.05.2020 06:01 8,2 C 72 % 1022,7 hPa 0,0 l/m 11,3 km/h (2 Bft) N 360 0,000 mm 3,5 C 4,8 C 12,9 km/h (3 Bft)
30.05.2020 06:00 8,2 C 72 % 1022,7 hPa 0,0 l/m 12,9 km/h (3 Bft) N 360 0,000 mm 3,5 C 4,0 C 14,5 km/h (3 Bft)
30.05.2020 05:59 8,1 C 73 % 1022,7 hPa 0,0 l/m 11,3 km/h (2 Bft) N 360 0,000 mm 3,6 C 4,7 C 16,1 km/h (3 Bft)
30.05.2020 05:58 8,2 C 73 % 1022,7 hPa 0,0 l/m 11,3 km/h (2 Bft) N 360 0,000 mm 3,7 C 4,8 C 14,5 km/h (3 Bft)
30.05.2020 05:57 8,2 C 73 % 1022,7 hPa 0,0 l/m 14,5 km/h (3 Bft) N 360 0,000 mm 3,7 C 3,2 C 16,1 km/h (3 Bft)
30.05.2020 05:56 8,2 C 73 % 1022,7 hPa 0,0 l/m 12,9 km/h (3 Bft) N 360 0,000 mm 3,7 C 4,0 C 16,1 km/h (3 Bft)
30.05.2020 05:55 8,2 C 73 % 1022,7 hPa 0,0 l/m 12,9 km/h (3 Bft) N 360 0,000 mm 3,7 C 4,0 C 16,1 km/h (3 Bft)
30.05.2020 05:54 8,2 C 72 % 1022,7 hPa 0,0 l/m 14,5 km/h (3 Bft) N 360 0,000 mm 3,5 C 3,2 C 17,7 km/h (3 Bft)
30.05.2020 05:53 8,2 C 73 % 1022,7 hPa 0,0 l/m 12,9 km/h (3 Bft) N-NW 337 0,000 mm 3,7 C 4,0 C 16,1 km/h (3 Bft)
30.05.2020 05:52 8,2 C 72 % 1022,7 hPa 0,0 l/m 14,5 km/h (3 Bft) N-NW 337 0,000 mm 3,5 C 3,2 C 16,1 km/h (3 Bft)
30.05.2020 05:51 8,2 C 72 % 1022,7 hPa 0,0 l/m 14,5 km/h (3 Bft) N-NW 337 0,000 mm 3,5 C 3,2 C 16,1 km/h (3 Bft)
30.05.2020 05:50 8,2 C 73 % 1022,6 hPa 0,0 l/m 16,1 km/h (3 Bft) N-NW 337 0,000 mm 3,7 C 2,5 C 19,3 km/h (3 Bft)
30.05.2020 05:49 8,1 C 73 % 1022,7 hPa 0,0 l/m 16,1 km/h (3 Bft) N-NW 337 0,000 mm 3,6 C 2,3 C 17,7 km/h (3 Bft)
30.05.2020 05:48 8,2 C 73 % 1022,7 hPa 0,0 l/m 14,5 km/h (3 Bft) N 360 0,000 mm 3,7 C 3,2 C 16,1 km/h (3 Bft)
30.05.2020 05:47 8,2 C 72 % 1022,7 hPa 0,0 l/m 16,1 km/h (3 Bft) N-NW 337 0,000 mm 3,5 C 2,5 C 17,7 km/h (3 Bft)
30.05.2020 05:46 8,2 C 72 % 1022,7 hPa 0,0 l/m 14,5 km/h (3 Bft) N 360 0,000 mm 3,5 C 3,2 C 17,7 km/h (3 Bft)
30.05.2020 05:45 8,2 C 72 % 1022,7 hPa 0,0 l/m 12,9 km/h (3 Bft) N-NW 337 0,000 mm 3,5 C 4,0 C 14,5 km/h (3 Bft)
30.05.2020 05:44 8,2 C 72 % 1022,7 hPa 0,0 l/m 14,5 km/h (3 Bft) N 360 0,000 mm 3,5 C 3,2 C 17,7 km/h (3 Bft)
30.05.2020 05:43 8,2 C 72 % 1022,6 hPa 0,0 l/m 14,5 km/h (3 Bft) N 360 0,000 mm 3,5 C 3,2 C 17,7 km/h (3 Bft)
30.05.2020 05:42 8,2 C 72 % 1022,6 hPa 0,0 l/m 17,7 km/h (3 Bft) N 360 0,000 mm 3,5 C 1,8 C 19,3 km/h (3 Bft)
30.05.2020 05:41 8,3 C 72 % 1022,7 hPa 0,0 l/m 14,5 km/h (3 Bft) N 360 0,000 mm 3,6 C 3,3 C 17,7 km/h (3 Bft)
30.05.2020 05:40 8,3 C 71 % 1022,7 hPa 0,0 l/m 16,1 km/h (3 Bft) N 360 0,000 mm 3,4 C 2,6 C 17,7 km/h (3 Bft)
30.05.2020 05:39 8,3 C 72 % 1022,7 hPa 0,0 l/m 16,1 km/h (3 Bft) N 360 0,000 mm 3,6 C 2,6 C 19,3 km/h (3 Bft)
30.05.2020 05:38 8,2 C 72 % 1022,7 hPa 0,0 l/m 14,5 km/h (3 Bft) N 360 0,000 mm 3,5 C 3,2 C 17,7 km/h (3 Bft)
30.05.2020 05:37 8,2 C 72 % 1022,7 hPa 0,0 l/m 16,1 km/h (3 Bft) N 360 0,000 mm 3,5 C 2,5 C 17,7 km/h (3 Bft)
30.05.2020 05:36 8,2 C 72 % 1022,8 hPa 0,0 l/m 14,5 km/h (3 Bft) N 360 0,000 mm 3,5 C 3,2 C 16,1 km/h (3 Bft)
30.05.2020 05:35 8,2 C 72 % 1022,8 hPa 0,0 l/m 12,9 km/h (3 Bft) N 360 0,000 mm 3,5 C 4,0 C 16,1 km/h (3 Bft)
30.05.2020 05:34 8,2 C 73 % 1022,8 hPa 0,0 l/m 12,9 km/h (3 Bft) N 360 0,000 mm 3,7 C 4,0 C 16,1 km/h (3 Bft)
30.05.2020 05:33 8,2 C 72 % 1022,7 hPa 0,0 l/m 11,3 km/h (2 Bft) N 360 0,000 mm 3,5 C 4,8 C 14,5 km/h (3 Bft)
30.05.2020 05:32 8,2 C 73 % 1022,8 hPa 0,0 l/m 12,9 km/h (3 Bft) N 360 0,000 mm 3,7 C 4,0 C 14,5 km/h (3 Bft)
30.05.2020 05:31 8,2 C 73 % 1022,8 hPa 0,0 l/m 11,3 km/h (2 Bft) N 360 0,000 mm 3,7 C 4,8 C 14,5 km/h (3 Bft)
30.05.2020 05:30 8,2 C 73 % 1022,8 hPa 0,0 l/m 14,5 km/h (3 Bft) N 360 0,000 mm 3,7 C 3,2 C 17,7 km/h (3 Bft)
30.05.2020 05:29 8,1 C 73 % 1022,8 hPa 0,0 l/m 14,5 km/h (3 Bft) N 360 0,000 mm 3,6 C 3,1 C 19,3 km/h (3 Bft)
30.05.2020 05:28 8,1 C 73 % 1022,8 hPa 0,0 l/m 16,1 km/h (3 Bft) N 360 0,000 mm 3,6 C 2,3 C 19,3 km/h (3 Bft)
30.05.2020 05:27 8,1 C 73 % 1022,8 hPa 0,0 l/m 14,5 km/h (3 Bft) N 360 0,000 mm 3,6 C 3,1 C 17,7 km/h (3 Bft)
30.05.2020 05:26 8,1 C 74 % 1022,9 hPa 0,0 l/m 12,9 km/h (3 Bft) N 360 0,000 mm 3,8 C 3,8 C 17,7 km/h (3 Bft)
30.05.2020 05:25 8,1 C 74 % 1022,8 hPa 0,0 l/m 11,3 km/h (2 Bft) N 360 0,000 mm 3,8 C 4,7 C 14,5 km/h (3 Bft)
30.05.2020 05:24 8,1 C 74 % 1022,8 hPa 0,0 l/m 14,5 km/h (3 Bft) N 360 0,000 mm 3,8 C 3,1 C 16,1 km/h (3 Bft)
30.05.2020 05:23 8,1 C 74 % 1022,9 hPa 0,0 l/m 11,3 km/h (2 Bft) N 360 0,000 mm 3,8 C 4,7 C 14,5 km/h (3 Bft)
30.05.2020 05:22 8,2 C 75 % 1022,9 hPa 0,0 l/m 12,9 km/h (3 Bft) N 360 0,000 mm 4,0 C 4,0 C 16,1 km/h (3 Bft)
30.05.2020 05:21 8,2 C 74 % 1022,9 hPa 0,0 l/m 11,3 km/h (2 Bft) N 360 0,000 mm 3,8 C 4,8 C 14,5 km/h (3 Bft)
30.05.2020 05:20 8,2 C 74 % 1022,8 hPa 0,0 l/m 12,9 km/h (3 Bft) N 360 0,000 mm 3,8 C 4,0 C 16,1 km/h (3 Bft)
30.05.2020 05:19 8,1 C 75 % 1022,9 hPa 0,0 l/m 14,5 km/h (3 Bft) N 360 0,000 mm 3,9 C 3,1 C 16,1 km/h (3 Bft)
30.05.2020 05:18 8,1 C 75 % 1022,9 hPa 0,0 l/m 11,3 km/h (2 Bft) N 360 0,000 mm 3,9 C 4,7 C 16,1 km/h (3 Bft)
30.05.2020 05:17 8,1 C 75 % 1022,9 hPa 0,0 l/m 11,3 km/h (2 Bft) N 360 0,000 mm 3,9 C 4,7 C 16,1 km/h (3 Bft)
30.05.2020 05:16 8,1 C 76 % 1022,9 hPa 0,0 l/m 11,3 km/h (2 Bft) N 360 0,000 mm 4,1 C 4,7 C 14,5 km/h (3 Bft)
30.05.2020 05:15 8,1 C 76 % 1022,9 hPa 0,0 l/m 9,7 km/h (2 Bft) N 360 0,000 mm 4,1 C 5,7 C 14,5 km/h (3 Bft)
30.05.2020 05:14 8,0 C 77 % 1022,9 hPa 0,0 l/m 9,7 km/h (2 Bft) N 360 0,000 mm 4,2 C 5,6 C 14,5 km/h (3 Bft)
30.05.2020 05:13 8,0 C 78 % 1022,9 hPa 0,0 l/m 9,7 km/h (2 Bft) N 360 0,000 mm 4,4 C 5,6 C 14,5 km/h (3 Bft)
30.05.2020 05:12 8,0 C 78 % 1022,9 hPa 0,0 l/m 8,0 km/h (2 Bft) N 360 0,000 mm 4,4 C 6,8 C 12,9 km/h (3 Bft)
30.05.2020 05:11 7,9 C 79 % 1022,9 hPa 0,0 l/m 11,3 km/h (2 Bft) N 360 0,000 mm 4,5 C 4,5 C 14,5 km/h (3 Bft)
30.05.2020 05:10 7,9 C 80 % 1023,0 hPa 0,0 l/m 9,7 km/h (2 Bft) N-NW 337 0,000 mm 4,7 C 5,5 C 12,9 km/h (3 Bft)
30.05.2020 05:09 7,9 C 81 % 1022,9 hPa 0,0 l/m 9,7 km/h (2 Bft) N 360 0,000 mm 4,8 C 5,5 C 12,9 km/h (3 Bft)
30.05.2020 05:08 7,9 C 82 % 1022,9 hPa 0,0 l/m 8,0 km/h (2 Bft) N 360 0,000 mm 5,0 C 6,6 C 9,7 km/h (2 Bft)
30.05.2020 05:07 7,8 C 82 % 1022,9 hPa 0,0 l/m 9,7 km/h (2 Bft) N-NW 337 0,000 mm 4,9 C 5,4 C 14,5 km/h (3 Bft)
30.05.2020 05:06 7,8 C 83 % 1022,9 hPa 0,0 l/m 11,3 km/h (2 Bft) N-NW 337 0,000 mm 5,1 C 4,4 C 14,5 km/h (3 Bft)
30.05.2020 05:05 7,9 C 87 % 1022,9 hPa 0,0 l/m 8,0 km/h (2 Bft) N-NW 337 0,000 mm 5,9 C 6,6 C 9,7 km/h (2 Bft)
30.05.2020 05:04 8,0 C 88 % 1023,0 hPa 0,0 l/m 6,4 km/h (2 Bft) N 360 0,000 mm 6,1 C 8,0 C 9,7 km/h (2 Bft)
30.05.2020 05:03 8,1 C 88 % 1022,9 hPa 0,0 l/m 6,4 km/h (2 Bft) N 360 0,000 mm 6,2 C 8,1 C 8,0 km/h (2 Bft)
30.05.2020 05:02 8,2 C 88 % 1023,0 hPa 0,0 l/m 6,4 km/h (2 Bft) N-NW 337 0,000 mm 6,3 C 8,2 C 8,0 km/h (2 Bft)
30.05.2020 05:01 8,2 C 88 % 1023,0 hPa 0,0 l/m 6,4 km/h (2 Bft) N-NW 337 0,000 mm 6,3 C 8,2 C 8,0 km/h (2 Bft)
30.05.2020 05:00 8,3 C 88 % 1023,0 hPa 0,0 l/m 6,4 km/h (2 Bft) N-NW 337 0,000 mm 6,4 C 8,3 C 8,0 km/h (2 Bft)
30.05.2020 04:59 8,3 C 89 % 1023,0 hPa 0,0 l/m 4,8 km/h (1 Bft) N-NW 337 0,000 mm 6,6 C 8,3 C 6,4 km/h (2 Bft)
30.05.2020 04:58 8,4 C 89 % 1022,9 hPa 0,0 l/m 6,4 km/h (2 Bft) N-NW 337 0,000 mm 6,7 C 8,4 C 8,0 km/h (2 Bft)
30.05.2020 04:57 8,4 C 89 % 1023,0 hPa 0,0 l/m 4,8 km/h (1 Bft) N-NW 337 0,000 mm 6,7 C 8,4 C 6,4 km/h (2 Bft)
30.05.2020 04:56 8,4 C 89 % 1023,0 hPa 0,0 l/m 6,4 km/h (2 Bft) N-NW 337 0,000 mm 6,7 C 8,4 C 8,0 km/h (2 Bft)
30.05.2020 04:55 8,4 C 90 % 1023,0 hPa 0,0 l/m 4,8 km/h (1 Bft) N-NW 337 0,000 mm 6,9 C 8,4 C 4,8 km/h (1 Bft)
30.05.2020 04:54 8,5 C 90 % 1023,0 hPa 0,0 l/m 3,2 km/h (1 Bft) NW 315 0,000 mm 7,0 C 8,5 C 4,8 km/h (1 Bft)
30.05.2020 04:53 8,5 C 90 % 1023,0 hPa 0,0 l/m 3,2 km/h (1 Bft) NW 315 0,000 mm 7,0 C 8,5 C 3,2 km/h (1 Bft)
30.05.2020 04:52 8,4 C 90 % 1023,0 hPa 0,0 l/m 1,6 km/h (1 Bft) NW 315 0,000 mm 6,9 C 8,4 C 3,2 km/h (1 Bft)
30.05.2020 04:51 8,5 C 90 % 1023,0 hPa 0,0 l/m 3,2 km/h (1 Bft) NW 315 0,000 mm 7,0 C 8,5 C 3,2 km/h (1 Bft)
30.05.2020 04:50 8,5 C 90 % 1023,0 hPa 0,0 l/m 1,6 km/h (1 Bft) NW 315 0,000 mm 7,0 C 8,5 C 3,2 km/h (1 Bft)
30.05.2020 04:49 8,5 C 90 % 1023,0 hPa 0,0 l/m 3,2 km/h (1 Bft) NW 315 0,000 mm 7,0 C 8,5 C 3,2 km/h (1 Bft)
30.05.2020 04:48 8,5 C 90 % 1023,0 hPa 0,0 l/m 1,6 km/h (1 Bft) NW 315 0,000 mm 7,0 C 8,5 C 1,6 km/h (1 Bft)
30.05.2020 04:47 8,5 C 90 % 1023,0 hPa 0,0 l/m 1,6 km/h (1 Bft) NW 315 0,000 mm 7,0 C 8,5 C 1,6 km/h (1 Bft)
30.05.2020 04:46 8,5 C 89 % 1023,0 hPa 0,0 l/m 0,0 km/h (0 Bft) N 360 0,000 mm 6,8 C 8,5 C 1,6 km/h (1 Bft)
30.05.2020 04:45 8,4 C 89 % 1023,0 hPa 0,0 l/m 0,0 km/h (0 Bft) N 0 0,000 mm 6,7 C 8,4 C 0,0 km/h (0 Bft)
30.05.2020 04:44 8,4 C 89 % 1023,0 hPa 0,0 l/m 0,0 km/h (0 Bft) NW 315 0,000 mm 6,7 C 8,4 C 1,6 km/h (1 Bft)
30.05.2020 04:43 8,4 C 89 % 1023,0 hPa 0,0 l/m 0,0 km/h (0 Bft) NW 315 0,000 mm 6,7 C 8,4 C 1,6 km/h (1 Bft)
30.05.2020 04:42 8,4 C 89 % 1023,0 hPa 0,0 l/m 1,6 km/h (1 Bft) N 360 0,000 mm 6,7 C 8,4 C 1,6 km/h (1 Bft)
30.05.2020 04:41 8,4 C 88 % 1023,0 hPa 0,0 l/m 1,6 km/h (1 Bft) NW 315 0,000 mm 6,5 C 8,4 C 1,6 km/h (1 Bft)
30.05.2020 04:40 8,4 C 88 % 1023,0 hPa 0,0 l/m 1,6 km/h (1 Bft) NW 315 0,000 mm 6,5 C 8,4 C 3,2 km/h (1 Bft)
30.05.2020 04:39 8,4 C 88 % 1023,0 hPa 0,0 l/m 3,2 km/h (1 Bft) NW 315 0,000 mm 6,5 C 8,4 C 4,8 km/h (1 Bft)
30.05.2020 04:38 8,5 C 89 % 1023,0 hPa 0,0 l/m 3,2 km/h (1 Bft) NW 315 0,000 mm 6,8 C 8,5 C 4,8 km/h (1 Bft)
30.05.2020 04:37 8,5 C 89 % 1023,0 hPa 0,0 l/m 1,6 km/h (1 Bft) NW 315 0,000 mm 6,8 C 8,5 C 3,2 km/h (1 Bft)
30.05.2020 04:36 8,6 C 89 % 1023,0 hPa 0,0 l/m 1,6 km/h (1 Bft) N 360 0,000 mm 6,9 C 8,6 C 3,2 km/h (1 Bft)
30.05.2020 04:35 8,6 C 89 % 1023,0 hPa 0,0 l/m 1,6 km/h (1 Bft) NW 315 0,000 mm 6,9 C 8,6 C 3,2 km/h (1 Bft)
30.05.2020 04:34 8,7 C 89 % 1023,0 hPa 0,0 l/m 3,2 km/h (1 Bft) NW 315 0,000 mm 7,0 C 8,7 C 4,8 km/h (1 Bft)
30.05.2020 04:33 8,7 C 89 % 1023,0 hPa 0,0 l/m 3,2 km/h (1 Bft) NW 315 0,000 mm 7,0 C 8,7 C 3,2 km/h (1 Bft)
30.05.2020 04:32 8,8 C 88 % 1023,1 hPa 0,0 l/m 3,2 km/h (1 Bft) NW 315 0,000 mm 6,9 C 8,8 C 4,8 km/h (1 Bft)
30.05.2020 04:31 8,8 C 88 % 1023,1 hPa 0,0 l/m 3,2 km/h (1 Bft) NW 315 0,000 mm 6,9 C 8,8 C 3,2 km/h (1 Bft)
30.05.2020 04:30 8,8 C 88 % 1023,1 hPa 0,0 l/m 3,2 km/h (1 Bft) NW 315 0,000 mm 6,9 C 8,8 C 4,8 km/h (1 Bft)
30.05.2020 04:29 8,9 C 87 % 1023,0 hPa 0,0 l/m 3,2 km/h (1 Bft) NW 315 0,000 mm 6,9 C 8,9 C 4,8 km/h (1 Bft)
30.05.2020 04:28 8,9 C 87 % 1023,1 hPa 0,0 l/m 3,2 km/h (1 Bft) NW 315 0,000 mm 6,9 C 8,9 C 3,2 km/h (1 Bft)
30.05.2020 04:27 8,9 C 87 % 1023,1 hPa 0,0 l/m 1,6 km/h (1 Bft) NW 315 0,000 mm 6,9 C 8,9 C 3,2 km/h (1 Bft)
30.05.2020 04:26 8,9 C 86 % 1023,1 hPa 0,0 l/m 3,2 km/h (1 Bft) NW 315 0,000 mm 6,7 C 8,9 C 4,8 km/h (1 Bft)
30.05.2020 04:25 9,0 C 86 % 1023,1 hPa 0,0 l/m 3,2 km/h (1 Bft) N 360 0,000 mm 6,8 C 9,0 C 4,8 km/h (1 Bft)
30.05.2020 04:24 9,1 C 86 % 1023,1 hPa 0,0 l/m 1,6 km/h (1 Bft) NW 315 0,000 mm 6,9 C 9,1 C 3,2 km/h (1 Bft)
30.05.2020 04:23 9,1 C 86 % 1023,1 hPa 0,0 l/m 3,2 km/h (1 Bft) NW 315 0,000 mm 6,9 C 9,1 C 4,8 km/h (1 Bft)
30.05.2020 04:22 9,1 C 87 % 1023,1 hPa 0,0 l/m 3,2 km/h (1 Bft) NW 315 0,000 mm 7,1 C 9,1 C 6,4 km/h (2 Bft)
30.05.2020 04:21 9,1 C 86 % 1023,1 hPa 0,0 l/m 1,6 km/h (1 Bft) NW 315 0,000 mm 6,9 C 9,1 C 3,2 km/h (1 Bft)
30.05.2020 04:20 9,1 C 86 % 1023,1 hPa 0,0 l/m 1,6 km/h (1 Bft) NW 315 0,000 mm 6,9 C 9,1 C 3,2 km/h (1 Bft)
30.05.2020 04:19 9,2 C 86 % 1023,1 hPa 0,0 l/m 1,6 km/h (1 Bft) NW 315 0,000 mm 7,0 C 9,2 C 3,2 km/h (1 Bft)
30.05.2020 04:18 9,2 C 85 % 1023,1 hPa 0,0 l/m 1,6 km/h (1 Bft) NW 315 0,000 mm 6,8 C 9,2 C 3,2 km/h (1 Bft)
30.05.2020 04:17 9,2 C 85 % 1023,1 hPa 0,0 l/m 1,6 km/h (1 Bft) NW 315 0,000 mm 6,8 C 9,2 C 1,6 km/h (1 Bft)
30.05.2020 04:16 9,2 C 85 % 1023,1 hPa 0,0 l/m 0,0 km/h (0 Bft) N 0 0,000 mm 6,8 C 9,2 C 0,0 km/h (0 Bft)
30.05.2020 04:15 9,2 C 84 % 1023,1 hPa 0,0 l/m 0,0 km/h (0 Bft) N 0 0,000 mm 6,6 C 9,2 C 0,0 km/h (0 Bft)
30.05.2020 04:14 9,2 C 85 % 1023,1 hPa 0,0 l/m 0,0 km/h (0 Bft) N 0 0,000 mm 6,8 C 9,2 C 0,0 km/h (0 Bft)
30.05.2020 04:13 9,2 C 85 % 1023,2 hPa 0,0 l/m 0,0 km/h (0 Bft) N 0 0,000 mm 6,8 C 9,2 C 0,0 km/h (0 Bft)
30.05.2020 04:12 9,2 C 84 % 1023,1 hPa 0,0 l/m 0,0 km/h (0 Bft) NW 315 0,000 mm 6,6 C 9,2 C 1,6 km/h (1 Bft)
30.05.2020 04:11 9,2 C 84 % 1023,1 hPa 0,0 l/m 0,0 km/h (0 Bft) NW 315 0,000 mm 6,6 C 9,2 C 1,6 km/h (1 Bft)
30.05.2020 04:10 9,2 C 84 % 1023,2 hPa 0,0 l/m 1,6 km/h (1 Bft) NW 315 0,000 mm 6,6 C 9,2 C 1,6 km/h (1 Bft)
30.05.2020 04:09 9,2 C 83 % 1023,1 hPa 0,0 l/m 3,2 km/h (1 Bft) NW 315 0,000 mm 6,5 C 9,2 C 3,2 km/h (1 Bft)
30.05.2020 04:08 9,2 C 83 % 1023,2 hPa 0,0 l/m 1,6 km/h (1 Bft) NW 315 0,000 mm 6,5 C 9,2 C 3,2 km/h (1 Bft)
30.05.2020 04:07 9,2 C 84 % 1023,2 hPa 0,0 l/m 1,6 km/h (1 Bft) NW 315 0,000 mm 6,6 C 9,2 C 3,2 km/h (1 Bft)
30.05.2020 04:06 9,2 C 84 % 1023,2 hPa 0,0 l/m 3,2 km/h (1 Bft) NW 315 0,000 mm 6,6 C 9,2 C 3,2 km/h (1 Bft)
30.05.2020 04:05 9,2 C 84 % 1023,2 hPa 0,0 l/m 1,6 km/h (1 Bft) NW 315 0,000 mm 6,6 C 9,2 C 3,2 km/h (1 Bft)
30.05.2020 04:04 9,2 C 84 % 1023,2 hPa 0,0 l/m 1,6 km/h (1 Bft) NW 315 0,000 mm 6,6 C 9,2 C 3,2 km/h (1 Bft)
30.05.2020 04:03 9,2 C 84 % 1023,2 hPa 0,0 l/m 0,0 km/h (0 Bft) N 360 0,000 mm 6,6 C 9,2 C 1,6 km/h (1 Bft)
30.05.2020 04:02 9,2 C 83 % 1023,2 hPa 0,0 l/m 1,6 km/h (1 Bft) NW 315 0,000 mm 6,5 C 9,2 C 3,2 km/h (1 Bft)
30.05.2020 04:01 9,2 C 83 % 1023,2 hPa 0,0 l/m 3,2 km/h (1 Bft) NW 315 0,000 mm 6,5 C 9,2 C 3,2 km/h (1 Bft)
30.05.2020 04:00 9,2 C 83 % 1023,2 hPa 0,0 l/m 3,2 km/h (1 Bft) NW 315 0,000 mm 6,5 C 9,2 C 3,2 km/h (1 Bft)
30.05.2020 03:59 9,2 C 83 % 1023,2 hPa 0,0 l/m 3,2 km/h (1 Bft) NW 315 0,000 mm 6,5 C 9,2 C 4,8 km/h (1 Bft)
30.05.2020 03:58 9,1 C 83 % 1023,3 hPa 0,0 l/m 4,8 km/h (1 Bft) NW 315 0,000 mm 6,4 C 9,1 C 4,8 km/h (1 Bft)
30.05.2020 03:57 9,1 C 83 % 1023,3 hPa 0,0 l/m 4,8 km/h (1 Bft) NW 315 0,000 mm 6,4 C 9,1 C 4,8 km/h (1 Bft)
30.05.2020 03:56 9,0 C 83 % 1023,2 hPa 0,0 l/m 3,2 km/h (1 Bft) NW 315 0,000 mm 6,3 C 9,0 C 4,8 km/h (1 Bft)
30.05.2020 03:55 8,9 C 83 % 1023,3 hPa 0,0 l/m 3,2 km/h (1 Bft) NW 315 0,000 mm 6,2 C 8,9 C 4,8 km/h (1 Bft)
30.05.2020 03:54 8,9 C 84 % 1023,3 hPa 0,0 l/m 3,2 km/h (1 Bft) NW 315 0,000 mm 6,3 C 8,9 C 4,8 km/h (1 Bft)
30.05.2020 03:53 8,9 C 84 % 1023,3 hPa 0,0 l/m 3,2 km/h (1 Bft) NW 315 0,000 mm 6,3 C 8,9 C 4,8 km/h (1 Bft)
30.05.2020 03:52 8,9 C 85 % 1023,4 hPa 0,0 l/m 3,2 km/h (1 Bft) NW 315 0,000 mm 6,5 C 8,9 C 4,8 km/h (1 Bft)
30.05.2020 03:51 8,9 C 85 % 1023,4 hPa 0,0 l/m 1,6 km/h (1 Bft) NW 315 0,000 mm 6,5 C 8,9 C 3,2 km/h (1 Bft)
30.05.2020 03:50 8,9 C 85 % 1023,4 hPa 0,0 l/m 3,2 km/h (1 Bft) NW 315 0,000 mm 6,5 C 8,9 C 3,2 km/h (1 Bft)
30.05.2020 03:49 8,8 C 86 % 1023,3 hPa 0,0 l/m 1,6 km/h (1 Bft) NW 315 0,000 mm 6,6 C 8,8 C 3,2 km/h (1 Bft)
30.05.2020 03:48 8,8 C 86 % 1023,4 hPa 0,0 l/m 3,2 km/h (1 Bft) NW 315 0,000 mm 6,6 C 8,8 C 4,8 km/h (1 Bft)
30.05.2020 03:47 8,8 C 86 % 1023,4 hPa 0,0 l/m 3,2 km/h (1 Bft) NW 315 0,000 mm 6,6 C 8,8 C 4,8 km/h (1 Bft)
30.05.2020 03:46 8,7 C 87 % 1023,4 hPa 0,0 l/m 3,2 km/h (1 Bft) NW 315 0,000 mm 6,7 C 8,7 C 4,8 km/h (1 Bft)
30.05.2020 03:45 8,7 C 88 % 1023,4 hPa 0,0 l/m 4,8 km/h (1 Bft) NW 315 0,000 mm 6,8 C 8,7 C 4,8 km/h (1 Bft)
30.05.2020 03:44 8,6 C 88 % 1023,4 hPa 0,0 l/m 3,2 km/h (1 Bft) NW 315 0,000 mm 6,7 C 8,6 C 4,8 km/h (1 Bft)
30.05.2020 03:43 8,6 C 89 % 1023,4 hPa 0,0 l/m 3,2 km/h (1 Bft) NW 315 0,000 mm 6,9 C 8,6 C 3,2 km/h (1 Bft)
30.05.2020 03:42 8,5 C 89 % 1023,5 hPa 0,0 l/m 3,2 km/h (1 Bft) NW 315 0,000 mm 6,8 C 8,5 C 3,2 km/h (1 Bft)
30.05.2020 03:41 8,4 C 90 % 1023,5 hPa 0,0 l/m 3,2 km/h (1 Bft) NW 315 0,000 mm 6,9 C 8,4 C 3,2 km/h (1 Bft)
30.05.2020 03:40 8,4 C 90 % 1023,5 hPa 0,0 l/m 3,2 km/h (1 Bft) NW 315 0,000 mm 6,9 C 8,4 C 4,8 km/h (1 Bft)
30.05.2020 03:39 8,4 C 90 % 1023,5 hPa 0,0 l/m 3,2 km/h (1 Bft) NW 315 0,000 mm 6,9 C 8,4 C 3,2 km/h (1 Bft)
30.05.2020 03:38 8,4 C 91 % 1023,5 hPa 0,0 l/m 3,2 km/h (1 Bft) NW 315 0,000 mm 7,0 C 8,4 C 3,2 km/h (1 Bft)
30.05.2020 03:37 8,4 C 91 % 1023,5 hPa 0,0 l/m 3,2 km/h (1 Bft) NW 315 0,000 mm 7,0 C 8,4 C 4,8 km/h (1 Bft)
30.05.2020 03:36 8,4 C 90 % 1023,5 hPa 0,0 l/m 3,2 km/h (1 Bft) NW 315 0,000 mm 6,9 C 8,4 C 4,8 km/h (1 Bft)
30.05.2020 03:35 8,4 C 90 % 1023,5 hPa 0,0 l/m 4,8 km/h (1 Bft) NW 315 0,000 mm 6,9 C 8,4 C 6,4 km/h (2 Bft)
30.05.2020 03:34 8,4 C 90 % 1023,5 hPa 0,0 l/m 4,8 km/h (1 Bft) NW 315 0,000 mm 6,9 C 8,4 C 6,4 km/h (2 Bft)
30.05.2020 03:33 8,5 C 89 % 1023,5 hPa 0,0 l/m 6,4 km/h (2 Bft) NW 315 0,000 mm 6,8 C 8,5 C 8,0 km/h (2 Bft)
30.05.2020 03:32 8,5 C 89 % 1023,5 hPa 0,0 l/m 6,4 km/h (2 Bft) NW 315 0,000 mm 6,8 C 8,5 C 8,0 km/h (2 Bft)
30.05.2020 03:31 8,6 C 88 % 1023,6 hPa 0,0 l/m 6,4 km/h (2 Bft) NW 315 0,000 mm 6,7 C 8,6 C 8,0 km/h (2 Bft)
30.05.2020 03:30 8,6 C 87 % 1023,6 hPa 0,0 l/m 6,4 km/h (2 Bft) NW 315 0,000 mm 6,6 C 8,6 C 8,0 km/h (2 Bft)
30.05.2020 03:29 8,7 C 86 % 1023,6 hPa 0,0 l/m 6,4 km/h (2 Bft) NW 315 0,000 mm 6,5 C 8,7 C 8,0 km/h (2 Bft)
30.05.2020 03:28 8,8 C 86 % 1023,6 hPa 0,0 l/m 6,4 km/h (2 Bft) NW 315 0,000 mm 6,6 C 8,8 C 6,4 km/h (2 Bft)
30.05.2020 03:27 8,9 C 85 % 1023,6 hPa 0,0 l/m 6,4 km/h (2 Bft) NW 315 0,000 mm 6,5 C 8,9 C 8,0 km/h (2 Bft)
30.05.2020 03:26 9,1 C 84 % 1023,6 hPa 0,0 l/m 4,8 km/h (1 Bft) W 270 0,000 mm 6,5 C 9,1 C 6,4 km/h (2 Bft)
30.05.2020 03:25 9,1 C 83 % 1023,6 hPa 0,0 l/m 3,2 km/h (1 Bft) S-SW 202 0,000 mm 6,4 C 9,1 C 4,8 km/h (1 Bft)
30.05.2020 03:24 9,1 C 83 % 1023,6 hPa 0,0 l/m 3,2 km/h (1 Bft) S-SW 202 0,000 mm 6,4 C 9,1 C 4,8 km/h (1 Bft)
30.05.2020 03:23 9,1 C 83 % 1023,6 hPa 0,0 l/m 3,2 km/h (1 Bft) S-SW 202 0,000 mm 6,4 C 9,1 C 4,8 km/h (1 Bft)
30.05.2020 03:22 9,1 C 83 % 1023,6 hPa 0,0 l/m 4,8 km/h (1 Bft) S-SW 202 0,000 mm 6,4 C 9,1 C 4,8 km/h (1 Bft)
30.05.2020 03:21 9,1 C 83 % 1023,6 hPa 0,0 l/m 4,8 km/h (1 Bft) S-SW 202 0,000 mm 6,4 C 9,1 C 4,8 km/h (1 Bft)
30.05.2020 03:20 9,1 C 83 % 1023,6 hPa 0,0 l/m 4,8 km/h (1 Bft) S-SW 202 0,000 mm 6,4 C 9,1 C 4,8 km/h (1 Bft)
30.05.2020 03:19 9,1 C 83 % 1023,6 hPa 0,0 l/m 4,8 km/h (1 Bft) S-SW 202 0,000 mm 6,4 C 9,1 C 4,8 km/h (1 Bft)
30.05.2020 03:18 9,1 C 83 % 1023,6 hPa 0,0 l/m 4,8 km/h (1 Bft) S-SW 202 0,000 mm 6,4 C 9,1 C 4,8 km/h (1 Bft)
30.05.2020 03:17 9,1 C 83 % 1023,7 hPa 0,0 l/m 3,2 km/h (1 Bft) S-SW 202 0,000 mm 6,4 C 9,1 C 4,8 km/h (1 Bft)
30.05.2020 03:16 9,1 C 83 % 1023,6 hPa 0,0 l/m 4,8 km/h (1 Bft) S-SW 202 0,000 mm 6,4 C 9,1 C 4,8 km/h (1 Bft)
30.05.2020 03:15 9,1 C 83 % 1023,6 hPa 0,0 l/m 4,8 km/h (1 Bft) S-SW 202 0,000 mm 6,4 C 9,1 C 6,4 km/h (2 Bft)
30.05.2020 03:14 9,2 C 83 % 1023,7 hPa 0,0 l/m 3,2 km/h (1 Bft) S-SW 202 0,000 mm 6,5 C 9,2 C 4,8 km/h (1 Bft)
30.05.2020 03:13 9,2 C 83 % 1023,7 hPa 0,0 l/m 4,8 km/h (1 Bft) S-SW 202 0,000 mm 6,5 C 9,2 C 6,4 km/h (2 Bft)
30.05.2020 03:12 9,2 C 83 % 1023,7 hPa 0,0 l/m 4,8 km/h (1 Bft) S-SW 202 0,000 mm 6,5 C 9,2 C 6,4 km/h (2 Bft)
30.05.2020 03:11 9,2 C 83 % 1023,7 hPa 0,0 l/m 4,8 km/h (1 Bft) S-SW 202 0,000 mm 6,5 C 9,2 C 6,4 km/h (2 Bft)
30.05.2020 03:10 9,2 C 82 % 1023,7 hPa 0,0 l/m 4,8 km/h (1 Bft) S-SW 202 0,000 mm 6,3 C 9,2 C 6,4 km/h (2 Bft)
30.05.2020 03:09 9,2 C 83 % 1023,7 hPa 0,0 l/m 6,4 km/h (2 Bft) S-SW 202 0,000 mm 6,5 C 9,2 C 6,4 km/h (2 Bft)
30.05.2020 03:08 9,2 C 83 % 1023,7 hPa 0,0 l/m 6,4 km/h (2 Bft) S-SW 202 0,000 mm 6,5 C 9,2 C 6,4 km/h (2 Bft)
30.05.2020 03:07 9,2 C 83 % 1023,7 hPa 0,0 l/m 6,4 km/h (2 Bft) S-SW 202 0,000 mm 6,5 C 9,2 C 6,4 km/h (2 Bft)
30.05.2020 03:06 9,2 C 83 % 1023,7 hPa 0,0 l/m 4,8 km/h (1 Bft) S-SW 202 0,000 mm 6,5 C 9,2 C 6,4 km/h (2 Bft)
30.05.2020 03:05 9,2 C 83 % 1023,7 hPa 0,0 l/m 4,8 km/h (1 Bft) S-SW 202 0,000 mm 6,5 C 9,2 C 6,4 km/h (2 Bft)
30.05.2020 03:04 9,2 C 84 % 1023,7 hPa 0,0 l/m 4,8 km/h (1 Bft) S-SW 202 0,000 mm 6,6 C 9,2 C 4,8 km/h (1 Bft)
30.05.2020 03:03 9,2 C 84 % 1023,7 hPa 0,0 l/m 3,2 km/h (1 Bft) S-SW 202 0,000 mm 6,6 C 9,2 C 4,8 km/h (1 Bft)
30.05.2020 03:02 9,2 C 83 % 1023,7 hPa 0,0 l/m 3,2 km/h (1 Bft) S-SW 202 0,000 mm 6,5 C 9,2 C 4,8 km/h (1 Bft)
30.05.2020 03:01 9,2 C 83 % 1023,7 hPa 0,0 l/m 4,8 km/h (1 Bft) S-SW 202 0,000 mm 6,5 C 9,2 C 6,4 km/h (2 Bft)
30.05.2020 03:00 9,1 C 84 % 1023,7 hPa 0,0 l/m 4,8 km/h (1 Bft) S 180 0,000 mm 6,5 C 9,1 C 6,4 km/h (2 Bft)
30.05.2020 02:59 9,1 C 84 % 1023,7 hPa 0,0 l/m 4,8 km/h (1 Bft) S-SW 202 0,000 mm 6,5 C 9,1 C 6,4 km/h (2 Bft)
30.05.2020 02:58 9,1 C 85 % 1023,7 hPa 0,0 l/m 4,8 km/h (1 Bft) S-SW 202 0,000 mm 6,7 C 9,1 C 6,4 km/h (2 Bft)
30.05.2020 02:57 9,1 C 85 % 1023,7 hPa 0,0 l/m 4,8 km/h (1 Bft) S-SW 202 0,000 mm 6,7 C 9,1 C 6,4 km/h (2 Bft)
30.05.2020 02:56 9,0 C 86 % 1023,6 hPa 0,0 l/m 6,4 km/h (2 Bft) S-SW 202 0,000 mm 6,8 C 9,0 C 6,4 km/h (2 Bft)
30.05.2020 02:55 9,0 C 86 % 1023,6 hPa 0,0 l/m 6,4 km/h (2 Bft) S-SW 202 0,000 mm 6,8 C 9,0 C 6,4 km/h (2 Bft)
30.05.2020 02:54 8,9 C 86 % 1023,7 hPa 0,0 l/m 6,4 km/h (2 Bft) S-SW 202 0,000 mm 6,7 C 8,9 C 8,0 km/h (2 Bft)
30.05.2020 02:53 8,8 C 87 % 1023,7 hPa 0,0 l/m 8,0 km/h (2 Bft) S 180 0,000 mm 6,8 C 7,6 C 8,0 km/h (2 Bft)
30.05.2020 02:52 8,8 C 87 % 1023,7 hPa 0,0 l/m 6,4 km/h (2 Bft) S 180 0,000 mm 6,8 C 8,8 C 8,0 km/h (2 Bft)
30.05.2020 02:51 8,7 C 87 % 1023,7 hPa 0,0 l/m 8,0 km/h (2 Bft) S 180 0,000 mm 6,7 C 7,5 C 8,0 km/h (2 Bft)
30.05.2020 02:50 8,7 C 88 % 1023,7 hPa 0,0 l/m 6,4 km/h (2 Bft) S 180 0,000 mm 6,8 C 8,7 C 8,0 km/h (2 Bft)
30.05.2020 02:49 8,7 C 89 % 1023,6 hPa 0,0 l/m 4,8 km/h (1 Bft) S 180 0,000 mm 7,0 C 8,7 C 6,4 km/h (2 Bft)
30.05.2020 02:48 8,7 C 89 % 1023,7 hPa 0,0 l/m 4,8 km/h (1 Bft) S 180 0,000 mm 7,0 C 8,7 C 6,4 km/h (2 Bft)
30.05.2020 02:47 8,7 C 89 % 1023,7 hPa 0,0 l/m 4,8 km/h (1 Bft) S 180 0,000 mm 7,0 C 8,7 C 8,0 km/h (2 Bft)
30.05.2020 02:46 8,8 C 88 % 1023,7 hPa 0,0 l/m 8,0 km/h (2 Bft) S 180 0,000 mm 6,9 C 7,6 C 9,7 km/h (2 Bft)
30.05.2020 02:45 8,8 C 88 % 1023,7 hPa 0,0 l/m 8,0 km/h (2 Bft) S 180 0,000 mm 6,9 C 7,6 C 9,7 km/h (2 Bft)
30.05.2020 02:44 8,9 C 88 % 1023,7 hPa 0,0 l/m 9,7 km/h (2 Bft) S 180 0,000 mm 7,0 C 6,6 C 11,3 km/h (2 Bft)
30.05.2020 02:43 9,0 C 87 % 1023,7 hPa 0,0 l/m 9,7 km/h (2 Bft) S-SO 157 0,000 mm 7,0 C 6,7 C 11,3 km/h (2 Bft)
30.05.2020 02:42 9,1 C 87 % 1023,7 hPa 0,0 l/m 9,7 km/h (2 Bft) S-SO 157 0,000 mm 7,1 C 6,8 C 12,9 km/h (3 Bft)
30.05.2020 02:41 9,2 C 86 % 1023,7 hPa 0,0 l/m 8,0 km/h (2 Bft) S-SO 157 0,000 mm 7,0 C 8,0 C 9,7 km/h (2 Bft)
30.05.2020 02:40 9,3 C 86 % 1023,7 hPa 0,0 l/m 9,7 km/h (2 Bft) S-SO 157 0,000 mm 7,1 C 7,0 C 11,3 km/h (2 Bft)
30.05.2020 02:39 9,3 C 85 % 1023,7 hPa 0,0 l/m 8,0 km/h (2 Bft) S-SO 157 0,000 mm 6,9 C 8,1 C 11,3 km/h (2 Bft)
30.05.2020 02:38 9,3 C 85 % 1023,7 hPa 0,0 l/m 4,8 km/h (1 Bft) SO 135 0,000 mm 6,9 C 9,3 C 6,4 km/h (2 Bft)
30.05.2020 02:37 9,3 C 85 % 1023,8 hPa 0,0 l/m 3,2 km/h (1 Bft) SO 135 0,000 mm 6,9 C 9,3 C 4,8 km/h (1 Bft)
30.05.2020 02:36 9,4 C 86 % 1023,8 hPa 0,0 l/m 1,6 km/h (1 Bft) SO 135 0,000 mm 7,2 C 9,4 C 3,2 km/h (1 Bft)
30.05.2020 02:35 9,3 C 85 % 1023,8 hPa 0,0 l/m 1,6 km/h (1 Bft) SO 135 0,000 mm 6,9 C 9,3 C 3,2 km/h (1 Bft)
30.05.2020 02:34 9,4 C 85 % 1023,8 hPa 0,0 l/m 1,6 km/h (1 Bft) SO 135 0,000 mm 7,0 C 9,4 C 1,6 km/h (1 Bft)
30.05.2020 02:33 9,4 C 85 % 1023,8 hPa 0,0 l/m 0,0 km/h (0 Bft) SO 135 0,000 mm 7,0 C 9,4 C 1,6 km/h (1 Bft)
30.05.2020 02:32 9,4 C 85 % 1023,8 hPa 0,0 l/m 0,0 km/h (0 Bft) SO 135 0,000 mm 7,0 C 9,4 C 1,6 km/h (1 Bft)
30.05.2020 02:31 9,3 C 85 % 1023,9 hPa 0,0 l/m 0,0 km/h (0 Bft) SO 135 0,000 mm 6,9 C 9,3 C 1,6 km/h (1 Bft)
30.05.2020 02:30 9,3 C 85 % 1023,8 hPa 0,0 l/m 1,6 km/h (1 Bft) SO 135 0,000 mm 6,9 C 9,3 C 1,6 km/h (1 Bft)
30.05.2020 02:29 9,3 C 85 % 1023,9 hPa 0,0 l/m 1,6 km/h (1 Bft) SO 135 0,000 mm 6,9 C 9,3 C 3,2 km/h (1 Bft)
30.05.2020 02:28 9,3 C 85 % 1023,8 hPa 0,0 l/m 1,6 km/h (1 Bft) SO 135 0,000 mm 6,9 C 9,3 C 3,2 km/h (1 Bft)
30.05.2020 02:27 9,3 C 85 % 1023,9 hPa 0,0 l/m 1,6 km/h (1 Bft) SO 135 0,000 mm 6,9 C 9,3 C 3,2 km/h (1 Bft)
30.05.2020 02:26 9,3 C 85 % 1023,9 hPa 0,0 l/m 3,2 km/h (1 Bft) SO 135 0,000 mm 6,9 C 9,3 C 3,2 km/h (1 Bft)
30.05.2020 02:25 9,3 C 84 % 1023,9 hPa 0,0 l/m 3,2 km/h (1 Bft) SO 135 0,000 mm 6,7 C 9,3 C 3,2 km/h (1 Bft)
30.05.2020 02:24 9,3 C 85 % 1023,9 hPa 0,0 l/m 3,2 km/h (1 Bft) SO 135 0,000 mm 6,9 C 9,3 C 4,8 km/h (1 Bft)
30.05.2020 02:23 9,3 C 85 % 1023,9 hPa 0,0 l/m 3,2 km/h (1 Bft) SO 135 0,000 mm 6,9 C 9,3 C 4,8 km/h (1 Bft)
30.05.2020 02:22 9,3 C 85 % 1024,0 hPa 0,0 l/m 3,2 km/h (1 Bft) SO 135 0,000 mm 6,9 C 9,3 C 4,8 km/h (1 Bft)
30.05.2020 02:21 9,3 C 85 % 1023,9 hPa 0,0 l/m 3,2 km/h (1 Bft) SO 135 0,000 mm 6,9 C 9,3 C 4,8 km/h (1 Bft)
30.05.2020 02:20 9,3 C 86 % 1023,9 hPa 0,0 l/m 3,2 km/h (1 Bft) SO 135 0,000 mm 7,1 C 9,3 C 4,8 km/h (1 Bft)
30.05.2020 02:19 9,2 C 86 % 1024,0 hPa 0,0 l/m 3,2 km/h (1 Bft) SO 135 0,000 mm 7,0 C 9,2 C 4,8 km/h (1 Bft)
30.05.2020 02:18 9,2 C 86 % 1024,0 hPa 0,0 l/m 3,2 km/h (1 Bft) SO 135 0,000 mm 7,0 C 9,2 C 4,8 km/h (1 Bft)
30.05.2020 02:17 9,2 C 86 % 1024,0 hPa 0,0 l/m 3,2 km/h (1 Bft) SO 135 0,000 mm 7,0 C 9,2 C 4,8 km/h (1 Bft)
30.05.2020 02:16 9,2 C 86 % 1024,0 hPa 0,0 l/m 3,2 km/h (1 Bft) SO 135 0,000 mm 7,0 C 9,2 C 4,8 km/h (1 Bft)
30.05.2020 02:15 9,2 C 86 % 1024,0 hPa 0,0 l/m 1,6 km/h (1 Bft) SO 135 0,000 mm 7,0 C 9,2 C 3,2 km/h (1 Bft)
30.05.2020 02:14 9,2 C 86 % 1024,0 hPa 0,0 l/m 1,6 km/h (1 Bft) SO 135 0,000 mm 7,0 C 9,2 C 3,2 km/h (1 Bft)
30.05.2020 02:13 9,2 C 86 % 1024,0 hPa 0,0 l/m 1,6 km/h (1 Bft) SO 135 0,000 mm 7,0 C 9,2 C 1,6 km/h (1 Bft)
30.05.2020 02:12 9,2 C 86 % 1024,1 hPa 0,0 l/m 1,6 km/h (1 Bft) SO 135 0,000 mm 7,0 C 9,2 C 1,6 km/h (1 Bft)
30.05.2020 02:11 9,2 C 86 % 1024,0 hPa 0,0 l/m 0,0 km/h (0 Bft) SO 135 0,000 mm 7,0 C 9,2 C 1,6 km/h (1 Bft)
30.05.2020 02:10 9,2 C 87 % 1024,0 hPa 0,0 l/m 0,0 km/h (0 Bft) SO 135 0,000 mm 7,2 C 9,2 C 1,6 km/h (1 Bft)
30.05.2020 02:09 9,2 C 87 % 1024,1 hPa 0,0 l/m 0,0 km/h (0 Bft) SO 135 0,000 mm 7,2 C 9,2 C 1,6 km/h (1 Bft)
30.05.2020 02:08 9,2 C 87 % 1024,0 hPa 0,0 l/m 0,0 km/h (0 Bft) SO 135 0,000 mm 7,2 C 9,2 C 1,6 km/h (1 Bft)
30.05.2020 02:07 9,2 C 87 % 1024,0 hPa 0,0 l/m 0,0 km/h (0 Bft) SO 135 0,000 mm 7,2 C 9,2 C 1,6 km/h (1 Bft)
30.05.2020 02:06 9,2 C 87 % 1024,0 hPa 0,0 l/m 1,6 km/h (1 Bft) SO 135 0,000 mm 7,2 C 9,2 C 1,6 km/h (1 Bft)
30.05.2020 02:05 9,2 C 88 % 1024,0 hPa 0,0 l/m 0,0 km/h (0 Bft) SO 135 0,000 mm 7,3 C 9,2 C 1,6 km/h (1 Bft)
30.05.2020 02:04 9,2 C 88 % 1023,9 hPa 0,0 l/m 0,0 km/h (0 Bft) N 360 0,000 mm 7,3 C 9,2 C 1,6 km/h (1 Bft)
30.05.2020 02:03 9,2 C 88 % 1024,0 hPa 0,0 l/m 0,0 km/h (0 Bft) SO 135 0,000 mm 7,3 C 9,2 C 1,6 km/h (1 Bft)
30.05.2020 02:02 9,2 C 88 % 1024,1 hPa 0,0 l/m 0,0 km/h (0 Bft) N 0 0,000 mm 7,3 C 9,2 C 0,0 km/h (0 Bft)
30.05.2020 02:01 9,2 C 88 % 1024,1 hPa 0,0 l/m 0,0 km/h (0 Bft) N 0 0,000 mm 7,3 C 9,2 C 0,0 km/h (0 Bft)
30.05.2020 02:00 9,2 C 88 % 1024,1 hPa 0,0 l/m 0,0 km/h (0 Bft) SO 135 0,000 mm 7,3 C 9,2 C 1,6 km/h (1 Bft)
30.05.2020 01:59 9,2 C 88 % 1024,1 hPa 0,0 l/m 0,0 km/h (0 Bft) N 360 0,000 mm 7,3 C 9,2 C 1,6 km/h (1 Bft)
30.05.2020 01:58 9,2 C 88 % 1024,1 hPa 0,0 l/m 0,0 km/h (0 Bft) N 0 0,000 mm 7,3 C 9,2 C 0,0 km/h (0 Bft)
30.05.2020 01:57 9,1 C 89 % 1024,1 hPa 0,0 l/m 0,0 km/h (0 Bft) N 0 0,000 mm 7,4 C 9,1 C 0,0 km/h (0 Bft)
30.05.2020 01:56 9,1 C 89 % 1024,2 hPa 0,0 l/m 0,0 km/h (0 Bft) N 0 0,000 mm 7,4 C 9,1 C 0,0 km/h (0 Bft)
30.05.2020 01:55 9,1 C 89 % 1024,2 hPa 0,0 l/m 0,0 km/h (0 Bft) N 0 0,000 mm 7,4 C 9,1 C 0,0 km/h (0 Bft)
30.05.2020 01:54 9,1 C 89 % 1024,2 hPa 0,0 l/m 0,0 km/h (0 Bft) N 360 0,000 mm 7,4 C 9,1 C 1,6 km/h (1 Bft)
30.05.2020 01:53 9,1 C 89 % 1024,2 hPa 0,0 l/m 0,0 km/h (0 Bft) SO 135 0,000 mm 7,4 C 9,1 C 1,6 km/h (1 Bft)
30.05.2020 01:52 9,1 C 88 % 1024,2 hPa 0,0 l/m 0,0 km/h (0 Bft) SO 135 0,000 mm 7,2 C 9,1 C 1,6 km/h (1 Bft)
30.05.2020 01:51 9,1 C 89 % 1024,2 hPa 0,0 l/m 0,0 km/h (0 Bft) N 0 0,000 mm 7,4 C 9,1 C 0,0 km/h (0 Bft)
30.05.2020 01:50 9,0 C 89 % 1024,2 hPa 0,0 l/m 0,0 km/h (0 Bft) N 0 0,000 mm 7,3 C 9,0 C 0,0 km/h (0 Bft)
30.05.2020 01:49 9,0 C 89 % 1024,2 hPa 0,0 l/m 0,0 km/h (0 Bft) SO 135 0,000 mm 7,3 C 9,0 C 1,6 km/h (1 Bft)
30.05.2020 01:48 8,9 C 89 % 1024,2 hPa 0,0 l/m 1,6 km/h (1 Bft) SO 135 0,000 mm 7,2 C 8,9 C 3,2 km/h (1 Bft)
30.05.2020 01:47 8,9 C 88 % 1024,3 hPa 0,0 l/m 3,2 km/h (1 Bft) SO 135 0,000 mm 7,0 C 8,9 C 3,2 km/h (1 Bft)
30.05.2020 01:46 8,9 C 88 % 1024,3 hPa 0,0 l/m 3,2 km/h (1 Bft) SO 135 0,000 mm 7,0 C 8,9 C 4,8 km/h (1 Bft)
30.05.2020 01:45 8,9 C 88 % 1024,3 hPa 0,0 l/m 4,8 km/h (1 Bft) SO 135 0,000 mm 7,0 C 8,9 C 4,8 km/h (1 Bft)
30.05.2020 01:44 8,9 C 88 % 1024,3 hPa 0,0 l/m 4,8 km/h (1 Bft) SO 135 0,000 mm 7,0 C 8,9 C 4,8 km/h (1 Bft)
30.05.2020 01:43 8,9 C 88 % 1024,3 hPa 0,0 l/m 4,8 km/h (1 Bft) SO 135 0,000 mm 7,0 C 8,9 C 4,8 km/h (1 Bft)
30.05.2020 01:42 9,0 C 88 % 1024,3 hPa 0,0 l/m 4,8 km/h (1 Bft) SO 135 0,000 mm 7,1 C 9,0 C 4,8 km/h (1 Bft)
30.05.2020 01:41 9,1 C 88 % 1024,3 hPa 0,0 l/m 3,2 km/h (1 Bft) SO 135 0,000 mm 7,2 C 9,1 C 4,8 km/h (1 Bft)
30.05.2020 01:40 9,1 C 87 % 1024,4 hPa 0,0 l/m 3,2 km/h (1 Bft) SO 135 0,000 mm 7,1 C 9,1 C 4,8 km/h (1 Bft)
30.05.2020 01:39 9,2 C 87 % 1024,4 hPa 0,0 l/m 3,2 km/h (1 Bft) SO 135 0,000 mm 7,2 C 9,2 C 4,8 km/h (1 Bft)
30.05.2020 01:38 9,3 C 87 % 1024,4 hPa 0,0 l/m 3,2 km/h (1 Bft) SO 135 0,000 mm 7,2 C 9,3 C 4,8 km/h (1 Bft)
30.05.2020 01:37 9,3 C 87 % 1024,4 hPa 0,0 l/m 4,8 km/h (1 Bft) SO 135 0,000 mm 7,2 C 9,3 C 6,4 km/h (2 Bft)
30.05.2020 01:36 9,3 C 87 % 1024,4 hPa 0,0 l/m 4,8 km/h (1 Bft) SO 135 0,000 mm 7,2 C 9,3 C 6,4 km/h (2 Bft)
30.05.2020 01:35 9,3 C 87 % 1024,4 hPa 0,0 l/m 4,8 km/h (1 Bft) SO 135 0,000 mm 7,2 C 9,3 C 6,4 km/h (2 Bft)
30.05.2020 01:34 9,3 C 87 % 1024,4 hPa 0,0 l/m 3,2 km/h (1 Bft) SO 135 0,000 mm 7,2 C 9,3 C 4,8 km/h (1 Bft)
30.05.2020 01:33 9,3 C 87 % 1024,4 hPa 0,0 l/m 3,2 km/h (1 Bft) SO 135 0,000 mm 7,2 C 9,3 C 4,8 km/h (1 Bft)
30.05.2020 01:32 9,3 C 87 % 1024,4 hPa 0,0 l/m 3,2 km/h (1 Bft) SO 135 0,000 mm 7,2 C 9,3 C 4,8 km/h (1 Bft)
30.05.2020 01:31 9,3 C 87 % 1024,4 hPa 0,0 l/m 3,2 km/h (1 Bft) SO 135 0,000 mm 7,2 C 9,3 C 3,2 km/h (1 Bft)
30.05.2020 01:30 9,3 C 87 % 1024,3 hPa 0,0 l/m 3,2 km/h (1 Bft) SO 135 0,000 mm 7,2 C 9,3 C 4,8 km/h (1 Bft)
30.05.2020 01:29 9,3 C 87 % 1024,4 hPa 0,0 l/m 3,2 km/h (1 Bft) SO 135 0,000 mm 7,2 C 9,3 C 4,8 km/h (1 Bft)
30.05.2020 01:28 9,3 C 87 % 1024,4 hPa 0,0 l/m 1,6 km/h (1 Bft) SO 135 0,000 mm 7,2 C 9,3 C 3,2 km/h (1 Bft)
30.05.2020 01:27 9,3 C 87 % 1024,4 hPa 0,0 l/m 1,6 km/h (1 Bft) SO 135 0,000 mm 7,2 C 9,3 C 3,2 km/h (1 Bft)
30.05.2020 01:26 9,3 C 88 % 1024,4 hPa 0,0 l/m 3,2 km/h (1 Bft) SO 135 0,000 mm 7,4 C 9,3 C 4,8 km/h (1 Bft)
30.05.2020 01:25 9,3 C 88 % 1024,5 hPa 0,0 l/m 3,2 km/h (1 Bft) SO 135 0,000 mm 7,4 C 9,3 C 4,8 km/h (1 Bft)
30.05.2020 01:24 9,3 C 88 % 1024,5 hPa 0,0 l/m 1,6 km/h (1 Bft) SO 135 0,000 mm 7,4 C 9,3 C 3,2 km/h (1 Bft)
30.05.2020 01:23 9,3 C 89 % 1024,5 hPa 0,0 l/m 1,6 km/h (1 Bft) SO 135 0,000 mm 7,6 C 9,3 C 3,2 km/h (1 Bft)
30.05.2020 01:22 9,3 C 89 % 1024,4 hPa 0,0 l/m 1,6 km/h (1 Bft) SO 135 0,000 mm 7,6 C 9,3 C 3,2 km/h (1 Bft)
30.05.2020 01:21 9,3 C 89 % 1024,4 hPa 0,0 l/m 3,2 km/h (1 Bft) SO 135 0,000 mm 7,6 C 9,3 C 4,8 km/h (1 Bft)
30.05.2020 01:20 9,3 C 89 % 1024,4 hPa 0,0 l/m 3,2 km/h (1 Bft) SO 135 0,000 mm 7,6 C 9,3 C 3,2 km/h (1 Bft)
30.05.2020 01:19 9,2 C 89 % 1024,4 hPa 0,0 l/m 3,2 km/h (1 Bft) SO 135 0,000 mm 7,5 C 9,2 C 4,8 km/h (1 Bft)
30.05.2020 01:18 9,2 C 89 % 1024,5 hPa 0,0 l/m 3,2 km/h (1 Bft) SO 135 0,000 mm 7,5 C 9,2 C 4,8 km/h (1 Bft)
30.05.2020 01:17 9,2 C 89 % 1024,4 hPa 0,0 l/m 1,6 km/h (1 Bft) SO 135 0,000 mm 7,5 C 9,2 C 3,2 km/h (1 Bft)
30.05.2020 01:16 9,2 C 89 % 1024,4 hPa 0,0 l/m 1,6 km/h (1 Bft) SO 135 0,000 mm 7,5 C 9,2 C 3,2 km/h (1 Bft)
30.05.2020 01:15 9,2 C 89 % 1024,4 hPa 0,0 l/m 3,2 km/h (1 Bft) SO 135 0,000 mm 7,5 C 9,2 C 4,8 km/h (1 Bft)
30.05.2020 01:14 9,2 C 89 % 1024,4 hPa 0,0 l/m 4,8 km/h (1 Bft) SO 135 0,000 mm 7,5 C 9,2 C 6,4 km/h (2 Bft)
30.05.2020 01:13 9,2 C 89 % 1024,4 hPa 0,0 l/m 6,4 km/h (2 Bft) S-SO 157 0,000 mm 7,5 C 9,2 C 6,4 km/h (2 Bft)
30.05.2020 01:12 9,2 C 89 % 1024,4 hPa 0,0 l/m 6,4 km/h (2 Bft) S-SO 157 0,000 mm 7,5 C 9,2 C 6,4 km/h (2 Bft)
30.05.2020 01:11 9,2 C 89 % 1024,4 hPa 0,0 l/m 4,8 km/h (1 Bft) S-SO 157 0,000 mm 7,5 C 9,2 C 6,4 km/h (2 Bft)
30.05.2020 01:10 9,2 C 89 % 1024,5 hPa 0,0 l/m 4,8 km/h (1 Bft) S-SO 157 0,000 mm 7,5 C 9,2 C 6,4 km/h (2 Bft)
30.05.2020 01:09 9,2 C 89 % 1024,5 hPa 0,0 l/m 4,8 km/h (1 Bft) S-SO 157 0,000 mm 7,5 C 9,2 C 6,4 km/h (2 Bft)
30.05.2020 01:08 9,1 C 89 % 1024,5 hPa 0,0 l/m 4,8 km/h (1 Bft) S-SO 157 0,000 mm 7,4 C 9,1 C 4,8 km/h (1 Bft)
30.05.2020 01:07 9,2 C 89 % 1024,6 hPa 0,0 l/m 4,8 km/h (1 Bft) S-SO 157 0,000 mm 7,5 C 9,2 C 4,8 km/h (1 Bft)
30.05.2020 01:06 9,1 C 89 % 1024,5 hPa 0,0 l/m 4,8 km/h (1 Bft) S-SO 157 0,000 mm 7,4 C 9,1 C 4,8 km/h (1 Bft)
30.05.2020 01:05 9,1 C 89 % 1024,6 hPa 0,0 l/m 4,8 km/h (1 Bft) S-SO 157 0,000 mm 7,4 C 9,1 C 4,8 km/h (1 Bft)
30.05.2020 01:04 9,1 C 89 % 1024,6 hPa 0,0 l/m 3,2 km/h (1 Bft) S-SO 157 0,000 mm 7,4 C 9,1 C 4,8 km/h (1 Bft)
30.05.2020 01:03 9,1 C 89 % 1024,6 hPa 0,0 l/m 3,2 km/h (1 Bft) S-SO 157 0,000 mm 7,4 C 9,1 C 4,8 km/h (1 Bft)
30.05.2020 01:02 9,1 C 89 % 1024,6 hPa 0,0 l/m 3,2 km/h (1 Bft) S-SO 157 0,000 mm 7,4 C 9,1 C 4,8 km/h (1 Bft)
30.05.2020 01:01 9,1 C 89 % 1024,6 hPa 0,0 l/m 3,2 km/h (1 Bft) S-SO 157 0,000 mm 7,4 C 9,1 C 4,8 km/h (1 Bft)
30.05.2020 01:00 9,1 C 89 % 1024,6 hPa 0,0 l/m 3,2 km/h (1 Bft) S-SO 157 0,000 mm 7,4 C 9,1 C 4,8 km/h (1 Bft)
30.05.2020 00:59 9,1 C 89 % 1024,6 hPa 0,0 l/m 3,2 km/h (1 Bft) S-SO 157 0,000 mm 7,4 C 9,1 C 4,8 km/h (1 Bft)
30.05.2020 00:58 9,1 C 89 % 1024,6 hPa 0,0 l/m 3,2 km/h (1 Bft) S-SO 157 0,000 mm 7,4 C 9,1 C 4,8 km/h (1 Bft)
30.05.2020 00:57 9,1 C 89 % 1024,6 hPa 0,0 l/m 3,2 km/h (1 Bft) S-SO 157 0,000 mm 7,4 C 9,1 C 4,8 km/h (1 Bft)
30.05.2020 00:56 9,1 C 89 % 1024,6 hPa 0,0 l/m 3,2 km/h (1 Bft) S-SO 157 0,000 mm 7,4 C 9,1 C 4,8 km/h (1 Bft)
30.05.2020 00:55 9,1 C 89 % 1024,6 hPa 0,0 l/m 3,2 km/h (1 Bft) S-SO 157 0,000 mm 7,4 C 9,1 C 4,8 km/h (1 Bft)
30.05.2020 00:54 9,1 C 89 % 1024,6 hPa 0,0 l/m 3,2 km/h (1 Bft) S-SO 157 0,000 mm 7,4 C 9,1 C 3,2 km/h (1 Bft)
30.05.2020 00:53 9,2 C 90 % 1024,6 hPa 0,0 l/m 3,2 km/h (1 Bft) S-SO 157 0,000 mm 7,6 C 9,2 C 3,2 km/h (1 Bft)
30.05.2020 00:52 9,2 C 90 % 1024,6 hPa 0,0 l/m 3,2 km/h (1 Bft) S-SO 157 0,000 mm 7,6 C 9,2 C 3,2 km/h (1 Bft)
30.05.2020 00:51 9,2 C 90 % 1024,6 hPa 0,0 l/m 3,2 km/h (1 Bft) S-SO 157 0,000 mm 7,6 C 9,2 C 4,8 km/h (1 Bft)
30.05.2020 00:50 9,2 C 90 % 1024,6 hPa 0,0 l/m 3,2 km/h (1 Bft) S-SO 157 0,000 mm 7,6 C 9,2 C 4,8 km/h (1 Bft)
30.05.2020 00:49 9,1 C 90 % 1024,6 hPa 0,0 l/m 3,2 km/h (1 Bft) S-SO 157 0,000 mm 7,5 C 9,1 C 3,2 km/h (1 Bft)
30.05.2020 00:48 9,1 C 90 % 1024,6 hPa 0,0 l/m 3,2 km/h (1 Bft) S-SO 157 0,000 mm 7,5 C 9,1 C 3,2 km/h (1 Bft)
30.05.2020 00:47 9,1 C 91 % 1024,6 hPa 0,0 l/m 3,2 km/h (1 Bft) S-SO 157 0,000 mm 7,7 C 9,1 C 4,8 km/h (1 Bft)
30.05.2020 00:46 9,1 C 91 % 1024,6 hPa 0,0 l/m 3,2 km/h (1 Bft) S-SO 157 0,000 mm 7,7 C 9,1 C 4,8 km/h (1 Bft)
30.05.2020 00:45 9,1 C 91 % 1024,6 hPa 0,0 l/m 3,2 km/h (1 Bft) S-SO 157 0,000 mm 7,7 C 9,1 C 4,8 km/h (1 Bft)
30.05.2020 00:44 9,0 C 91 % 1024,6 hPa 0,0 l/m 3,2 km/h (1 Bft) S-SO 157 0,000 mm 7,6 C 9,0 C 4,8 km/h (1 Bft)
30.05.2020 00:43 9,0 C 91 % 1024,7 hPa 0,0 l/m 4,8 km/h (1 Bft) S-SO 157 0,000 mm 7,6 C 9,0 C 4,8 km/h (1 Bft)
30.05.2020 00:42 8,9 C 91 % 1024,6 hPa 0,0 l/m 4,8 km/h (1 Bft) S-SO 157 0,000 mm 7,5 C 8,9 C 8,0 km/h (2 Bft)
30.05.2020 00:41 8,9 C 90 % 1024,7 hPa 0,0 l/m 3,2 km/h (1 Bft) S-SO 157 0,000 mm 7,4 C 8,9 C 6,4 km/h (2 Bft)
30.05.2020 00:40 8,9 C 90 % 1024,7 hPa 0,0 l/m 3,2 km/h (1 Bft) S-SO 157 0,000 mm 7,4 C 8,9 C 6,4 km/h (2 Bft)
30.05.2020 00:39 8,9 C 90 % 1024,7 hPa 0,0 l/m 4,8 km/h (1 Bft) S-SO 157 0,000 mm 7,4 C 8,9 C 6,4 km/h (2 Bft)
30.05.2020 00:38 8,9 C 91 % 1024,7 hPa 0,0 l/m 4,8 km/h (1 Bft) S-SO 157 0,000 mm 7,5 C 8,9 C 6,4 km/h (2 Bft)
30.05.2020 00:37 8,8 C 91 % 1024,7 hPa 0,0 l/m 4,8 km/h (1 Bft) S-SO 157 0,000 mm 7,4 C 8,8 C 6,4 km/h (2 Bft)
30.05.2020 00:36 8,8 C 91 % 1024,7 hPa 0,0 l/m 3,2 km/h (1 Bft) S-SO 157 0,000 mm 7,4 C 8,8 C 6,4 km/h (2 Bft)
30.05.2020 00:35 8,8 C 91 % 1024,8 hPa 0,0 l/m 3,2 km/h (1 Bft) S-SO 157 0,000 mm 7,4 C 8,8 C 4,8 km/h (1 Bft)
30.05.2020 00:34 8,8 C 91 % 1024,8 hPa 0,0 l/m 3,2 km/h (1 Bft) S-SO 157 0,000 mm 7,4 C 8,8 C 4,8 km/h (1 Bft)
30.05.2020 00:33 8,8 C 91 % 1024,8 hPa 0,0 l/m 3,2 km/h (1 Bft) S-SO 157 0,000 mm 7,4 C 8,8 C 4,8 km/h (1 Bft)
30.05.2020 00:32 8,8 C 91 % 1024,8 hPa 0,0 l/m 3,2 km/h (1 Bft) S-SO 157 0,000 mm 7,4 C 8,8 C 6,4 km/h (2 Bft)
30.05.2020 00:31 8,8 C 91 % 1024,8 hPa 0,0 l/m 4,8 km/h (1 Bft) S-SO 157 0,000 mm 7,4 C 8,8 C 6,4 km/h (2 Bft)
30.05.2020 00:30 8,8 C 91 % 1024,8 hPa 0,0 l/m 3,2 km/h (1 Bft) S-SO 157 0,000 mm 7,4 C 8,8 C 6,4 km/h (2 Bft)
30.05.2020 00:29 8,8 C 91 % 1024,8 hPa 0,0 l/m 4,8 km/h (1 Bft) S-SO 157 0,000 mm 7,4 C 8,8 C 6,4 km/h (2 Bft)
30.05.2020 00:28 8,8 C 91 % 1024,8 hPa 0,0 l/m 6,4 km/h (2 Bft) S-SO 157 0,000 mm 7,4 C 8,8 C 6,4 km/h (2 Bft)
30.05.2020 00:27 8,7 C 91 % 1024,9 hPa 0,0 l/m 4,8 km/h (1 Bft) S-SO 157 0,000 mm 7,3 C 8,7 C 6,4 km/h (2 Bft)
30.05.2020 00:26 8,7 C 91 % 1024,8 hPa 0,0 l/m 4,8 km/h (1 Bft) S-SO 157 0,000 mm 7,3 C 8,7 C 6,4 km/h (2 Bft)
30.05.2020 00:25 8,7 C 91 % 1024,9 hPa 0,0 l/m 3,2 km/h (1 Bft) S-SO 157 0,000 mm 7,3 C 8,7 C 6,4 km/h (2 Bft)
30.05.2020 00:24 8,7 C 91 % 1024,9 hPa 0,0 l/m 4,8 km/h (1 Bft) S-SO 157 0,000 mm 7,3 C 8,7 C 6,4 km/h (2 Bft)
30.05.2020 00:23 8,7 C 91 % 1024,9 hPa 0,0 l/m 4,8 km/h (1 Bft) S-SO 157 0,000 mm 7,3 C 8,7 C 6,4 km/h (2 Bft)
30.05.2020 00:22 8,7 C 91 % 1024,9 hPa 0,0 l/m 4,8 km/h (1 Bft) S-SO 157 0,000 mm 7,3 C 8,7 C 6,4 km/h (2 Bft)
30.05.2020 00:21 8,7 C 91 % 1024,9 hPa 0,0 l/m 4,8 km/h (1 Bft) S 180 0,000 mm 7,3 C 8,7 C 6,4 km/h (2 Bft)
30.05.2020 00:20 8,8 C 91 % 1024,9 hPa 0,0 l/m 4,8 km/h (1 Bft) S 180 0,000 mm 7,4 C 8,8 C 6,4 km/h (2 Bft)
30.05.2020 00:19 8,8 C 91 % 1024,9 hPa 0,0 l/m 4,8 km/h (1 Bft) S 180 0,000 mm 7,4 C 8,8 C 8,0 km/h (2 Bft)
30.05.2020 00:18 8,8 C 91 % 1024,9 hPa 0,0 l/m 4,8 km/h (1 Bft) S 180 0,000 mm 7,4 C 8,8 C 8,0 km/h (2 Bft)
30.05.2020 00:17 8,8 C 91 % 1024,9 hPa 0,0 l/m 4,8 km/h (1 Bft) S 180 0,000 mm 7,4 C 8,8 C 6,4 km/h (2 Bft)
30.05.2020 00:16 8,8 C 91 % 1024,9 hPa 0,0 l/m 4,8 km/h (1 Bft) S 180 0,000 mm 7,4 C 8,8 C 8,0 km/h (2 Bft)
30.05.2020 00:15 8,8 C 91 % 1024,9 hPa 0,0 l/m 4,8 km/h (1 Bft) S 180 0,000 mm 7,4 C 8,8 C 6,4 km/h (2 Bft)
30.05.2020 00:14 8,8 C 91 % 1024,9 hPa 0,0 l/m 4,8 km/h (1 Bft) S 180 0,000 mm 7,4 C 8,8 C 6,4 km/h (2 Bft)
30.05.2020 00:13 8,8 C 91 % 1024,9 hPa 0,0 l/m 4,8 km/h (1 Bft) S 180 0,000 mm 7,4 C 8,8 C 6,4 km/h (2 Bft)
30.05.2020 00:12 8,8 C 91 % 1024,9 hPa 0,0 l/m 4,8 km/h (1 Bft) S 180 0,000 mm 7,4 C 8,8 C 6,4 km/h (2 Bft)
30.05.2020 00:11 8,8 C 91 % 1024,9 hPa 0,0 l/m 4,8 km/h (1 Bft) S 180 0,000 mm 7,4 C 8,8 C 6,4 km/h (2 Bft)
30.05.2020 00:10 8,8 C 91 % 1024,9 hPa 0,0 l/m 4,8 km/h (1 Bft) S 180 0,000 mm 7,4 C 8,8 C 6,4 km/h (2 Bft)
30.05.2020 00:09 8,8 C 91 % 1024,8 hPa 0,0 l/m 6,4 km/h (2 Bft) S 180 0,000 mm 7,4 C 8,8 C 8,0 km/h (2 Bft)
30.05.2020 00:08 8,8 C 91 % 1024,8 hPa 0,0 l/m 6,4 km/h (2 Bft) S 180 0,000 mm 7,4 C 8,8 C 8,0 km/h (2 Bft)
30.05.2020 00:07 8,8 C 91 % 1024,8 hPa 0,0 l/m 6,4 km/h (2 Bft) S 180 0,000 mm 7,4 C 8,8 C 8,0 km/h (2 Bft)
30.05.2020 00:06 8,8 C 91 % 1024,8 hPa 0,0 l/m 8,0 km/h (2 Bft) S 180 0,000 mm 7,4 C 7,6 C 9,7 km/h (2 Bft)
30.05.2020 00:05 8,9 C 91 % 1024,8 hPa 0,0 l/m 8,0 km/h (2 Bft) S 180 0,000 mm 7,5 C 7,7 C 9,7 km/h (2 Bft)
30.05.2020 00:04 8,9 C 91 % 1024,8 hPa 0,0 l/m 8,0 km/h (2 Bft) S 180 0,000 mm 7,5 C 7,7 C 9,7 km/h (2 Bft)
30.05.2020 00:03 8,9 C 91 % 1024,8 hPa 0,0 l/m 9,7 km/h (2 Bft) S 180 0,000 mm 7,5 C 6,6 C 11,3 km/h (2 Bft)
30.05.2020 00:02 8,9 C 91 % 1024,8 hPa 0,0 l/m 9,7 km/h (2 Bft) S 180 0,000 mm 7,5 C 6,6 C 12,9 km/h (3 Bft)
30.05.2020 00:01 8,9 C 91 % 1024,8 hPa 0,0 l/m 11,3 km/h (2 Bft) S 180 0,000 mm 7,5 C 5,6 C 12,9 km/h (3 Bft)
30.05.2020 00:00 9,0 C 91 % 1024,8 hPa 0,0 l/m 9,7 km/h (2 Bft) S 180 0,000 mm 7,6 C 6,7 C 12,9 km/h (3 Bft)
_ Min-Zeit 05:06 09:58 09:58 - 01:49 - - - 06:16 05:42 01:50
Minimum _ 7,8 C 65 % 1021,9 hPa - 0,0 km/h (0 Bft) - - - 3,1 C 1,8 C 0,0 km/h (0 Bft)
_ Max-Zeit 10:00 00:00 00:10 00:00 05:42 - - 00:00 00:45 10:02 07:55
Maximum _ 10,8 C 91 % 1024,9 hPa 0,0 l/m 17,7 km/h
N (3 Bft)
- - 0,000 mm 7,7 C 10,8 C 20,9 km/h
N (4 Bft)
Durchschnitt _ 9,0 C 80 % 1023,0 hPa #0,0 l/m 6,9 km/h (2 Bft) N - #0,000 mm 5,8 C 7,7 C 8,7 km/h (2 Bft)